GFSFLT1_sfc_rhum_003.txt.gz
RH
14 16 18 18 21 20 20 20 22 24 22 25 23 24 25 26 25 25 31 28 29 29 29 35 34 31 33 37 39 33 36 40
13 18 20 21 23 23 21 22 23 22 21 22 23 26 25 25 22 26 28 24 28 31 26 28 32 31 35 40 39 41 35 34
16 18 22 25 24 24 21 20 22 23 19 21 21 23 21 22 23 29 31 30 30 28 30 30 31 32 38 38 41 39 38 36
16 19 22 26 27 27 23 20 20 23 23 18 21 24 26 23 23 25 30 34 32 32 33 33 35 36 35 38 38 40 38 40
16 18 20 24 28 28 25 23 21 20 24 23 29 23 22 21 22 20 20 26 31 32 32 33 36 36 40 42 33 43 46 42
18 18 18 19 24 30 30 26 24 22 23 32 31 35 30 24 25 28 31 31 31 30 32 35 38 36 40 47 50 51 43 46
18 18 18 20 26 30 32 29 26 24 25 27 40 43 37 32 35 36 40 35 36 33 28 35 38 39 39 43 49 50 50 49
21 20 20 20 22 26 30 30 29 26 28 31 37 40 40 40 36 35 33 34 31 34 36 43 36 35 35 37 44 48 46 46
23 23 23 22 23 24 26 26 27 26 27 30 33 35 35 35 32 34 34 31 31 32 34 34 34 34 35 39 40 42 45 46
24 24 26 25 26 27 29 27 27 26 27 30 34 38 38 34 33 35 33 32 27 30 34 36 36 36 36 39 42 45 46 50
25 25 27 28 28 28 32 30 28 28 26 31 36 36 35 34 35 36 36 35 34 34 34 34 34 35 37 40 43 43 48 49
26 26 26 28 30 29 30 30 29 31 27 36 38 35 34 33 33 32 34 35 34 34 33 34 35 36 37 40 42 43 46 47
26 27 30 30 30 27 28 30 31 28 31 35 36 35 32 33 35 34 36 36 37 36 35 34 34 34 35 36 40 37 41 43
27 29 34 33 30 28 28 29 30 29 29 33 35 34 35 36 35 36 36 36 35 34 34 36 36 36 35 37 36 40 42 44
29 34 35 39 32 28 28 30 31 29 29 30 36 38 37 35 37 39 38 36 37 36 36 35 37 35 34 36 36 41 45 46
33 41 46 49 34 28 28 28 30 30 33 37 45 40 37 38 39 39 38 38 36 34 35 36 37 35 30 38 40 47 52 57
39 51 58 49 33 28 28 28 32 37 42 46 39 37 37 39 39 40 39 36 33 34 36 38 39 30 51 67 64 58 62 67
50 64 58 45 36 28 28 34 44 61 43 40 38 37 38 40 36 35 36 36 36 38 38 39 42 45 59 67 70 65 75 78
72 62 55 44 41 35 42 59 50 47 45 37 33 35 37 38 37 34 34 35 38 38 42 44 49 47 67 72 76 78 84 82

GFSFLT1_sfc_rhum_006.txt.gz
RH
16 18 23 25 33 32 33 33 36 40 41 44 46 48 46 47 50 48 50 49 45 49 54 54 53 54 56 61 63 62 61 60
18 23 28 30 36 33 32 32 38 37 42 46 46 50 48 49 46 44 49 45 47 50 53 50 53 54 57 56 60 61 66 63
19 24 31 35 35 35 34 33 35 36 36 40 43 46 42 41 45 51 47 51 47 46 53 49 50 56 58 62 63 64 66 62
20 26 33 38 40 42 35 33 33 37 39 36 41 44 46 44 44 45 51 51 53 53 52 54 54 57 61 64 63 62 66 65
21 28 30 36 41 44 40 38 34 33 43 37 46 39 36 35 43 39 36 52 55 50 52 54 58 59 60 64 52 71 68 68
25 25 26 34 37 47 46 42 41 38 42 46 43 48 45 47 49 48 46 48 45 43 46 53 58 62 64 66 67 67 69 70
26 27 28 29 39 43 49 47 38 41 43 47 54 52 53 54 53 55 52 51 54 54 48 57 59 60 60 62 63 62 64 64
32 30 30 34 38 41 47 44 40 41 49 51 51 58 59 58 57 56 52 52 49 51 51 54 54 54 55 56 58 60 60 57
30 31 35 35 39 40 40 36 38 38 43 47 53 54 55 56 56 54 53 51 50 47 48 51 51 52 56 58 57 57 59 61
29 31 36 38 40 42 47 43 38 38 45 52 53 55 55 55 52 54 53 51 38 50 52 53 55 58 59 60 60 57 57 58
32 32 37 38 38 39 47 50 41 39 40 48 46 51 53 50 52 51 50 50 48 51 52 53 53 54 54 57 59 58 59 60
33 34 35 37 40 40 40 40 39 42 44 48 56 51 52 49 47 47 47 52 49 50 50 50 48 48 49 53 54 54 54 53
31 32 34 39 43 45 44 43 42 42 44 51 51 50 48 50 49 49 52 52 52 52 48 45 44 44 47 49 51 47 50 51
34 33 39 42 47 52 50 39 41 40 38 46 49 50 49 49 54 54 50 52 51 48 44 48 47 49 47 48 47 48 49 50
34 38 42 46 52 53 44 36 42 39 38 40 50 48 50 54 54 54 55 53 53 50 49 48 50 45 42 43 41 46 49 49
49 51 46 50 54 53 42 38 39 39 39 40 49 61 59 54 54 56 55 57 50 49 47 48 50 46 37 46 52 58 60 62
57 49 53 55 54 52 39 37 38 40 47 66 71 63 53 53 56 57 58 55 52 49 52 52 53 39 56 69 74 70 69 70
57 62 63 56 54 49 46 47 65 73 77 70 65 64 51 54 50 50 57 58 56 56 55 55 55 55 64 71 73 75 78 78
64 62 58 55 54 60 74 74 67 68 70 70 59 48 48 50 54 54 55 55 57 55 58 59 61 58 70 72 74 76 82 84

GFSFLT1_sfc_rhum_009.txt.gz
RH
21 26 29 32 36 34 36 36 32 42 45 44 51 50 48 59 66 66 59 59 52 51 62 66 57 60 66 62 60 65 67 67
30 31 32 36 39 32 32 35 38 41 42 46 48 55 53 56 51 54 57 56 50 50 55 61 62 60 62 59 65 62 63 68
28 33 36 33 36 37 36 34 38 40 43 45 46 49 50 50 52 56 57 56 55 52 55 55 54 58 55 59 70 70 71 67
25 25 35 41 40 39 39 38 37 43 40 42 47 53 51 46 49 55 55 53 56 56 56 61 60 62 63 66 63 62 69 71
27 29 32 39 42 45 41 40 40 40 46 44 43 41 44 44 46 47 51 58 59 58 57 61 64 67 65 70 66 73 72 77
29 30 32 35 43 47 49 45 44 44 47 51 49 47 55 50 52 50 54 62 60 56 58 59 65 70 64 64 66 69 76 78
34 37 34 34 41 45 51 49 45 47 49 51 56 52 47 55 54 59 59 60 57 54 51 58 60 59 57 59 59 56 62 67
36 37 37 43 53 43 49 52 51 51 55 56 56 57 52 49 58 66 58 60 57 52 52 53 54 54 55 54 56 60 62 65
37 43 44 45 45 47 49 49 49 49 56 60 62 63 60 53 60 67 66 61 58 55 57 58 56 57 60 65 62 54 65 69
40 43 47 48 49 51 58 57 56 54 54 57 61 68 68 66 64 60 61 58 50 59 62 62 68 73 71 60 68 68 69 67
43 44 48 50 53 56 59 57 54 50 50 54 57 63 59 62 63 59 57 59 58 66 73 79 75 67 60 61 62 64 68 70
45 44 46 53 58 61 64 59 58 51 50 59 61 60 57 57 55 55 57 59 63 70 70 69 61 56 54 57 62 62 66 65
45 49 53 56 58 64 59 59 64 51 54 60 61 58 55 55 54 55 58 59 61 57 60 56 54 56 58 62 62 60 58 58
58 57 54 55 61 61 61 58 55 49 53 57 57 55 53 56 61 58 56 60 62 61 52 61 60 61 60 62 58 56 55 58
62 62 59 59 57 58 65 61 52 50 49 55 58 56 55 62 64 63 61 58 61 62 60 62 65 58 51 52 49 54 61 61
65 65 64 62 61 62 65 50 52 47 47 59 79 77 68 63 64 61 64 62 59 62 63 62 63 57 44 55 65 74 78 79
64 65 64 64 62 63 53 67 80 77 80 82 80 77 73 65 57 58 62 62 64 60 63 66 68 48 62 77 76 84 83 81
69 71 67 64 67 62 73 78 77 80 81 78 82 83 85 82 62 56 61 65 63 65 66 66 70 73 71 70 70 72 78 81
77 69 65 74 74 82 86 91 84 83 83 82 82 82 75 54 56 61 62 62 64 65 68 72 77 66 72 74 75 78 84 84

GFSFLT1_sfc_rhum_012.txt.gz
RH
23 29 33 39 43 42 42 36 48 49 51 53 58 60 57 65 77 75 67 66 60 62 72 70 63 69 70 69 62 70 68 65
38 37 41 41 42 39 40 37 38 49 50 51 53 56 57 59 66 68 67 64 61 59 64 68 69 66 68 67 66 68 66 72
35 36 40 37 37 36 37 36 40 43 46 47 47 49 53 53 57 61 69 67 63 58 61 64 66 70 68 69 71 74 73 74
34 36 38 41 40 40 37 38 38 44 45 47 50 56 58 56 56 59 60 63 61 61 60 66 65 69 68 64 67 68 71 77
28 30 39 45 41 45 45 42 42 42 48 48 48 41 41 43 47 54 58 60 59 62 63 67 68 73 71 74 71 78 78 76
35 37 35 34 40 45 48 46 46 46 50 55 54 51 47 44 58 54 56 62 64 64 68 69 77 77 69 62 60 60 68 73
37 37 40 45 45 48 50 51 49 51 53 57 61 59 52 56 58 64 66 71 73 70 62 62 63 61 61 64 61 61 63 62
39 39 40 46 50 50 50 53 50 50 59 62 63 66 64 62 56 59 64 65 62 63 61 65 65 70 72 74 75 76 68 68
44 48 50 50 50 57 53 53 55 53 59 61 65 70 76 73 69 67 72 64 65 64 69 76 77 79 82 83 86 83 77 71
49 50 53 56 60 62 62 62 62 56 64 65 65 67 73 78 72 71 68 63 63 74 80 85 90 88 88 87 81 72 70 70
50 52 56 61 64 65 69 66 59 60 66 62 59 67 69 68 67 67 69 72 76 81 87 90 92 86 75 70 72 71 72 72
57 56 56 53 54 57 64 70 71 73 65 60 66 60 64 64 63 68 68 74 77 83 86 80 76 76 72 71 68 68 72 71
64 64 63 62 64 68 68 68 72 65 58 64 68 62 62 62 65 66 67 67 70 71 72 68 69 68 65 67 71 66 70 66
71 70 63 69 64 68 67 73 66 56 57 65 64 62 60 63 66 66 65 64 59 63 63 65 66 67 67 68 68 65 66 62
71 73 71 74 69 73 72 70 65 62 57 62 66 65 64 69 68 67 65 65 65 64 65 66 70 68 62 62 60 67 74 72
71 74 72 75 71 74 74 69 78 75 73 79 88 80 75 71 71 74 71 62 61 66 68 67 68 64 51 69 80 83 84 83
63 70 75 74 72 73 70 69 74 81 83 84 83 88 82 85 83 80 70 71 64 62 64 68 69 54 69 74 78 83 73 72
70 76 80 77 79 73 83 90 92 83 86 86 89 91 91 87 84 74 73 66 63 63 64 68 72 74 69 68 74 76 83 84
71 82 80 82 82 86 90 90 93 90 91 87 85 90 90 83 70 64 63 62 62 65 69 71 75 69 73 73 77 82 88 86

GFSFLT1_sfc_rhum_015.txt.gz
RH
28 30 36 39 53 56 52 55 67 66 65 64 64 64 66 67 72 82 77 76 74 70 78 80 72 75 76 73 66 74 70 67
44 40 45 47 52 49 46 39 54 57 57 57 57 59 60 64 64 69 77 75 72 71 72 77 74 73 70 72 70 68 74 75
42 46 46 42 42 44 45 41 39 47 50 50 51 53 56 58 60 63 70 74 71 68 65 68 72 73 73 76 74 79 76 81
40 38 43 44 42 41 40 40 41 46 49 49 52 57 58 60 57 62 59 69 69 69 63 60 68 71 69 72 76 74 74 79
36 38 41 42 39 43 44 44 44 44 49 51 51 49 43 43 44 48 52 65 62 65 62 62 64 70 76 74 73 80 80 78
34 34 32 38 43 46 52 56 54 52 55 57 60 60 55 52 55 62 59 62 69 65 65 61 67 76 76 74 69 65 69 69
38 41 41 42 50 54 57 55 52 57 59 62 67 69 65 66 64 70 64 71 72 77 75 76 70 68 72 74 67 66 67 68
44 44 44 50 55 61 58 62 59 61 63 62 62 65 71 75 74 73 72 78 76 75 72 69 76 79 85 85 87 82 82 82
54 56 59 62 66 66 65 63 63 62 63 63 70 70 74 78 81 84 84 78 81 83 86 84 87 86 88 90 93 94 95 96
56 59 63 65 64 64 69 68 66 67 70 77 74 68 69 75 78 81 83 80 78 91 93 94 90 88 92 95 94 90 86 82
64 64 63 62 62 65 72 74 71 74 76 72 55 61 70 74 75 78 81 80 88 93 90 89 90 91 93 92 84 77 79 81
68 68 67 67 69 69 72 74 76 80 75 63 66 72 69 72 73 79 82 87 87 88 77 76 87 85 81 78 79 75 74 76
70 68 66 71 73 74 75 78 82 72 62 64 70 73 67 69 72 72 75 72 70 66 72 76 76 75 75 73 75 70 72 71
64 68 67 72 76 76 75 81 73 69 62 65 70 68 66 66 71 70 68 67 63 63 69 73 70 72 71 72 72 72 72 73
69 74 71 76 78 79 78 81 77 77 65 65 68 70 63 71 69 73 72 67 66 66 67 69 73 68 64 65 65 72 79 77
72 74 76 80 84 81 83 75 79 83 86 81 82 78 76 80 88 87 82 76 72 70 69 67 68 62 53 74 79 81 80 81
78 70 70 78 85 83 78 81 88 93 94 88 86 91 92 94 94 91 85 84 71 62 62 66 68 55 69 71 75 85 83 80
61 68 76 80 87 81 87 89 93 90 90 92 90 91 94 94 90 89 84 70 63 63 64 68 72 73 68 70 75 82 88 86
58 61 77 91 85 86 88 90 90 94 94 94 91 92 92 84 70 64 62 63 64 65 67 72 79 73 70 71 73 86 90 88

GFSFLT1_sfc_rhum_018.txt.gz
RH
32 32 42 43 51 61 67 66 72 76 78 77 73 72 70 74 74 80 81 83 80 86 86 85 84 83 86 80 71 76 70 68
50 45 45 48 56 61 59 55 60 71 67 63 62 61 62 65 66 66 75 78 80 82 78 83 85 77 72 76 75 71 78 81
47 51 55 52 52 56 54 47 44 59 58 56 56 57 58 62 64 63 68 78 81 77 76 72 79 76 78 77 76 80 77 83
44 44 49 47 47 49 46 46 44 47 51 52 52 55 57 57 54 58 56 64 67 80 73 70 70 74 70 68 71 75 69 86
41 41 43 44 44 46 47 48 48 47 52 55 58 58 56 53 57 57 49 60 66 69 76 74 70 70 71 74 74 79 79 82
36 37 38 45 52 57 60 59 60 62 64 66 69 69 72 70 69 69 66 66 69 68 70 73 78 79 77 76 78 77 71 76
41 44 46 52 63 66 68 65 62 64 66 67 69 77 77 76 69 79 78 82 81 80 80 86 86 82 77 71 72 71 76 76
58 61 63 65 60 65 63 67 64 61 63 66 76 77 77 74 69 74 81 87 83 88 86 88 89 91 91 91 87 89 90 94
66 66 68 60 60 65 67 65 66 64 72 77 79 71 66 65 70 80 91 88 92 93 93 94 94 95 96 95 96 97 97 98
68 68 67 65 62 63 71 74 74 73 79 83 76 69 68 65 72 83 88 90 87 95 94 95 94 92 90 92 95 94 94 94
66 66 65 67 71 73 76 76 77 77 83 76 61 66 70 75 81 82 87 89 94 94 92 89 89 86 90 93 95 92 91 88
69 70 72 73 74 77 80 80 81 85 78 68 71 66 70 75 76 81 87 91 93 92 84 79 79 78 88 93 88 81 78 76
69 73 75 77 76 75 80 82 84 85 71 70 70 74 76 73 77 79 82 78 74 71 73 73 76 80 79 78 77 75 75 73
68 65 70 77 77 79 84 83 87 75 79 77 76 74 73 71 75 74 72 72 73 77 74 72 71 74 73 71 69 71 72 74
65 77 81 79 77 79 87 86 80 82 89 91 90 86 77 78 89 90 87 83 84 82 75 74 72 66 62 63 63 72 78 78
80 76 62 58 63 73 89 86 83 87 94 94 92 90 91 91 91 90 87 86 79 75 66 66 67 62 52 75 77 79 78 77
62 52 49 50 71 86 91 85 84 89 89 90 91 91 87 94 92 92 91 90 86 66 64 68 71 57 71 71 77 86 83 83
59 54 65 82 89 87 86 88 90 91 94 88 94 92 92 94 92 92 92 74 66 66 66 69 71 74 69 66 68 77 86 88
68 81 84 80 82 83 91 90 89 86 87 77 75 77 82 75 66 64 66 67 66 66 69 74 80 69 67 69 71 83 88 88

GFSFLT1_sfc_rhum_021.txt.gz
RH
28 28 31 36 48 48 50 53 56 59 56 59 54 54 52 53 50 48 56 55 64 64 60 64 65 64 67 68 67 54 46 42
31 35 32 36 45 46 48 48 52 52 51 49 45 44 41 41 40 46 51 49 56 64 58 60 64 63 62 66 64 64 53 51
33 34 38 40 37 42 45 46 42 41 43 43 43 43 39 40 42 46 47 50 53 56 61 57 60 60 66 66 66 56 54 52
31 33 39 42 43 45 38 38 40 42 46 39 40 42 44 40 38 39 40 48 50 53 55 58 59 61 60 64 64 64 54 51
30 33 38 45 48 51 47 48 45 46 50 48 53 48 48 45 48 44 46 52 53 53 56 58 62 60 62 62 58 63 61 54
34 38 42 48 55 56 53 48 48 50 53 55 53 52 49 50 52 54 52 52 54 56 58 61 63 61 64 66 66 68 59 64
45 47 46 46 54 55 54 50 48 51 52 57 60 59 56 53 53 50 48 49 55 60 60 66 68 68 68 64 66 66 63 61
49 48 46 48 50 54 50 51 50 53 56 62 64 57 58 55 52 50 53 51 54 60 66 69 68 70 70 69 74 77 77 83
50 50 50 50 52 52 54 53 51 53 57 62 61 55 51 50 51 54 56 57 61 71 71 71 71 72 73 76 88 92 93 96
49 48 51 53 57 58 60 59 54 53 57 62 56 54 57 56 58 58 58 65 65 74 72 71 72 72 78 85 92 92 90 89
45 46 52 53 54 53 60 58 56 56 58 60 52 57 56 59 60 61 63 67 72 74 71 71 72 68 72 72 74 75 78 79
50 51 52 55 57 56 57 60 60 59 61 57 62 60 62 59 57 62 67 72 74 72 64 62 66 72 69 68 70 68 67 64
55 56 58 58 54 48 51 59 63 62 58 61 63 66 61 56 60 62 66 62 69 73 80 87 87 79 62 58 60 58 55 52
56 57 55 49 46 50 58 65 67 62 60 63 68 67 60 65 73 79 76 83 85 84 81 71 65 64 54 50 48 48 48 49
61 56 51 46 46 59 66 66 66 63 63 67 74 69 72 80 81 79 78 73 70 66 67 57 55 48 44 45 46 51 52 52
62 52 46 51 65 63 58 62 64 65 71 71 74 74 76 73 75 73 70 70 70 75 78 57 56 50 42 55 51 54 54 54
55 52 62 62 55 59 66 67 70 72 68 74 80 88 87 85 88 78 74 77 74 55 52 54 54 44 69 68 64 52 52 55
60 65 60 60 64 69 73 73 71 65 71 72 76 78 71 69 64 52 52 54 53 52 52 53 55 57 64 65 66 57 61 61
67 62 61 64 66 69 75 71 63 64 60 62 54 54 52 52 51 52 53 51 52 52 54 56 55 50 65 68 71 65 69 65

GFSFLT1_sfc_rhum_024.txt.gz
RH
29 28 27 26 31 36 38 38 41 42 39 41 36 35 33 33 30 29 36 35 41 45 41 44 44 44 42 42 48 43 43 39
22 26 26 26 33 36 38 37 41 37 35 35 31 31 28 27 25 31 38 37 39 44 40 41 43 46 49 49 46 52 49 43
24 28 32 34 35 36 35 34 33 30 26 30 33 35 30 32 33 36 35 39 40 39 44 43 44 44 49 52 55 52 48 45
24 28 33 35 38 36 31 33 35 38 36 30 31 30 31 29 32 31 34 39 39 40 42 44 47 47 46 49 51 54 53 48
25 29 35 40 42 40 36 36 34 36 41 36 42 36 36 37 38 35 36 37 38 38 41 45 49 46 49 48 43 52 53 53
30 33 35 37 42 43 41 35 37 38 41 44 42 43 38 38 40 42 40 36 35 34 40 48 51 48 49 55 58 58 53 54
33 32 32 34 41 42 40 37 35 40 43 47 51 50 46 42 40 38 33 33 32 35 38 50 53 55 56 56 59 61 60 61
34 34 33 36 40 41 39 37 35 36 40 40 42 42 42 41 40 37 42 37 37 42 49 53 52 58 59 64 70 74 82 86
35 35 37 38 41 42 42 39 37 35 36 38 40 41 39 41 42 44 43 43 44 51 55 57 57 58 62 68 73 90 90 95
34 34 37 38 40 43 46 40 36 36 38 42 45 44 49 49 48 48 43 48 45 55 60 58 62 69 66 66 77 77 80 80
36 36 39 39 39 40 44 39 38 40 42 46 45 49 49 49 49 48 50 52 56 61 68 66 71 78 80 79 78 78 73 71
39 39 40 40 39 37 36 39 41 44 45 48 52 52 51 47 45 48 53 59 65 66 75 84 88 89 84 77 73 66 62 59
37 39 39 36 36 34 39 44 44 43 43 46 50 51 50 47 50 51 55 59 72 84 91 84 68 60 64 64 55 49 47 45
36 37 37 36 34 40 41 37 36 38 39 43 47 49 50 52 57 62 67 68 69 67 61 56 51 49 45 43 41 43 44 43
40 41 38 35 40 38 32 35 41 43 46 46 48 56 60 66 64 65 62 55 54 54 57 63 65 52 44 41 41 44 44 42
45 44 36 39 35 34 36 44 46 47 47 45 53 63 76 83 86 71 65 56 53 53 54 46 44 42 33 49 45 45 43 42
50 45 41 40 37 38 44 46 49 49 47 47 56 61 60 62 61 56 47 43 40 41 42 44 45 34 67 65 62 46 43 43
46 42 43 40 41 41 45 49 47 48 48 46 46 46 46 45 40 38 42 44 42 43 43 44 46 46 62 64 66 50 50 50
43 45 42 40 37 36 43 42 47 50 48 48 43 45 42 41 42 44 44 42 44 44 45 46 47 41 62 64 69 58 56 52

GFSFLT1_sfc_rhum_027.txt.gz
RH
20 25 22 22 27 31 33 33 37 38 35 35 29 29 28 27 26 26 32 34 37 40 39 42 42 40 42 43 51 44 45 44
23 26 26 24 30 28 33 35 41 36 32 32 29 29 27 26 25 32 36 35 38 43 38 39 43 42 47 52 51 55 52 48
25 27 30 32 32 31 31 30 32 29 25 29 33 34 30 30 31 34 33 37 39 38 41 39 39 40 48 52 55 52 52 51
25 29 34 35 35 33 30 31 32 35 34 28 29 28 29 29 30 32 34 39 38 40 39 40 45 46 44 50 50 53 51 49
25 29 33 38 38 36 32 32 31 33 38 34 42 37 37 36 39 37 36 38 35 33 33 37 43 46 51 50 40 53 54 53
28 29 32 35 39 39 37 31 32 35 39 42 43 43 39 35 34 37 37 32 32 30 33 39 46 48 52 56 57 56 51 53
28 28 28 30 38 39 38 34 31 32 36 38 41 44 41 36 36 36 33 36 34 36 34 42 49 49 51 53 65 67 69 67
29 30 30 33 35 37 37 34 34 32 35 36 38 40 40 39 40 39 44 40 37 37 42 48 47 53 65 65 66 70 70 78
29 29 31 32 34 36 39 36 34 31 34 37 38 40 38 41 44 45 44 41 40 44 47 58 68 77 77 80 87 81 81 94
29 30 32 33 33 35 38 38 34 34 37 39 43 44 45 46 47 47 43 45 41 52 71 79 82 78 78 85 88 89 88 75
31 30 32 33 33 33 36 34 33 35 38 43 40 41 40 43 45 45 45 48 62 65 76 77 76 79 79 75 84 81 86 89
31 30 31 33 32 32 32 35 36 35 32 33 37 37 39 41 41 43 48 56 59 62 65 73 72 65 60 62 63 60 61 59
31 33 33 35 32 30 33 34 28 27 28 31 35 38 38 40 47 56 56 55 57 59 65 64 57 54 47 47 50 45 45 46
30 34 37 36 32 33 30 26 28 30 32 36 38 38 46 53 56 58 53 57 60 61 62 64 54 46 45 45 42 41 40 39
34 36 36 34 32 30 27 28 33 35 35 36 39 47 57 59 70 82 74 64 62 61 55 46 42 35 34 35 34 42 42 38
39 41 38 34 32 30 29 31 34 36 38 37 40 54 55 61 65 63 56 54 40 37 37 36 36 34 30 44 44 47 44 42
45 40 39 38 31 32 31 31 36 37 38 38 40 48 46 48 49 48 44 43 42 37 36 37 38 29 71 65 60 50 46 45
44 45 44 38 33 32 30 30 31 34 38 35 41 44 45 46 42 42 42 43 37 38 38 38 40 40 61 62 67 52 52 50
51 50 40 31 33 33 29 28 29 32 32 35 37 46 47 43 39 38 38 37 39 40 41 40 42 38 69 68 69 58 56 54

GFSFLT1_sfc_rhum_030.txt.gz
RH
24 28 34 34 47 44 44 43 52 53 60 53 52 50 50 52 50 52 56 53 58 64 64 67 69 67 68 70 74 71 72 71
32 36 39 38 46 43 46 49 59 56 55 55 54 55 52 49 46 50 50 52 52 61 61 60 65 65 69 69 70 71 67 73
33 38 46 43 43 43 41 41 45 43 43 47 52 54 51 49 50 47 49 55 57 52 63 62 63 67 69 71 73 72 69 72
35 39 45 48 48 48 39 41 43 49 53 44 48 51 53 50 50 51 54 57 55 57 57 60 65 67 71 72 68 70 68 67
32 37 44 51 53 52 43 42 41 44 52 54 63 59 55 56 54 54 53 52 53 50 54 60 66 70 72 72 58 74 75 74
33 36 40 43 53 55 50 43 40 44 49 53 59 60 60 56 56 57 56 58 56 53 52 60 68 69 69 77 83 85 82 84
32 32 33 41 53 53 53 45 40 44 46 50 55 60 60 60 59 61 62 60 57 56 52 61 69 75 79 81 83 79 78 79
34 33 34 38 44 47 47 46 43 44 50 53 55 59 62 61 63 64 65 60 58 56 63 77 81 83 83 84 87 87 86 87
34 34 37 39 42 45 46 44 44 43 49 54 59 62 61 60 62 66 66 63 62 79 79 82 84 82 84 85 91 91 91 93
32 34 39 41 43 45 50 46 41 44 51 58 58 59 60 62 62 64 64 63 58 76 82 83 84 84 84 87 92 90 91 93
34 35 38 39 41 41 50 45 42 43 42 46 40 48 52 57 62 62 68 69 69 71 76 78 80 81 82 80 76 75 84 91
34 34 36 39 43 43 42 44 40 36 37 42 50 50 52 56 61 66 66 69 68 70 67 73 72 72 73 77 78 76 81 80
33 35 40 42 44 41 40 42 35 37 39 44 48 51 53 58 61 64 69 66 62 69 72 74 74 65 62 63 63 60 60 62
33 37 39 42 42 42 37 36 36 36 37 42 47 51 58 69 70 74 77 79 74 75 70 68 65 63 55 53 50 53 56 56
37 40 42 41 39 39 36 36 40 37 38 42 48 62 62 68 70 75 78 78 74 68 62 54 54 46 41 46 48 59 62 55
48 46 43 40 41 40 35 38 37 40 40 44 48 57 58 60 65 66 62 61 55 54 52 52 53 45 44 63 60 62 64 60
53 43 43 45 43 39 36 37 38 39 39 44 45 52 56 61 63 63 60 58 56 53 52 53 55 36 72 68 69 70 63 62
52 50 48 48 45 36 38 37 36 38 37 36 41 48 54 59 52 50 54 59 54 56 56 55 59 60 70 69 71 70 70 68
53 50 49 46 36 35 38 33 36 38 35 34 35 47 48 53 53 50 54 54 58 58 60 65 66 54 74 74 73 75 74 73

GFSFLT1_sfc_rhum_033.txt.gz
RH
44 45 46 54 60 58 70 62 76 83 84 75 74 64 61 62 63 61 54 60 60 68 70 71 74 73 76 80 80 78 82 84
48 50 51 50 61 54 50 49 71 72 67 60 62 60 57 58 60 54 51 59 62 64 68 68 69 72 73 73 79 82 75 82
52 60 69 72 67 56 55 50 53 55 58 58 60 65 58 58 64 61 62 62 62 57 68 69 69 76 77 79 78 81 82 82
51 55 66 62 62 54 50 52 52 58 59 63 64 65 66 63 61 65 60 60 59 60 64 70 72 76 81 81 80 87 94 88
51 59 64 63 63 57 53 49 51 54 56 61 64 72 69 66 65 64 62 62 63 59 61 67 74 79 82 88 84 94 94 97
53 57 56 59 59 59 56 53 52 54 57 60 66 65 65 64 63 64 67 66 62 60 60 71 86 89 91 94 94 91 81 83
48 53 56 61 64 62 57 53 52 56 59 62 64 66 66 68 68 74 74 71 68 71 78 89 90 92 94 96 94 87 93 89
47 46 52 56 58 61 53 56 52 52 58 67 69 69 70 70 74 76 73 72 78 91 89 91 94 93 93 92 90 93 94 95
46 48 52 50 51 54 52 50 49 53 64 64 65 67 72 72 73 72 72 75 91 90 89 90 90 90 92 93 95 96 95 96
46 48 49 49 48 53 56 51 51 53 54 53 53 57 60 63 68 76 84 81 68 86 88 89 88 89 90 92 96 94 92 95
44 46 49 52 52 55 54 52 48 44 45 51 51 56 58 70 76 76 75 75 74 76 83 85 81 83 86 91 92 87 90 96
44 47 52 50 49 49 53 44 42 44 46 50 57 59 64 69 70 74 77 79 75 77 80 75 78 83 81 83 84 84 85 85
47 49 50 52 52 49 45 43 43 45 46 51 54 57 69 77 79 83 85 88 86 82 78 78 76 80 78 76 74 68 68 67
52 52 55 53 49 46 43 42 44 42 45 50 54 63 68 76 80 80 83 86 90 87 83 82 77 74 65 61 65 68 69 67
61 58 53 51 46 49 44 46 45 45 47 50 56 70 66 72 77 80 83 83 86 85 67 64 63 58 59 62 61 70 72 68
60 58 58 56 56 56 53 48 46 45 46 50 59 68 67 68 69 71 69 68 64 64 60 61 63 59 56 72 71 76 76 76
59 56 55 56 56 56 47 47 49 50 50 53 55 66 66 72 70 68 68 64 61 57 58 64 72 51 76 72 76 81 77 75
64 62 59 58 60 52 50 48 50 49 51 51 50 60 63 66 63 64 61 65 59 60 61 72 73 76 75 71 74 81 80 80
67 64 60 56 54 52 50 41 50 56 49 49 54 66 61 63 72 63 59 57 59 60 73 75 74 61 74 75 80 85 86 83

GFSFLT1_sfc_rhum_039.txt.gz
RH
64 65 67 76 83 88 92 93 95 95 93 91 84 69 69 69 72 70 72 69 67 68 71 71 70 72 82 82 82 79 82 88
72 70 68 75 85 87 88 84 86 85 87 84 83 83 86 80 56 57 57 57 59 64 65 72 77 76 79 79 85 85 86 95
71 76 84 84 88 86 78 75 69 76 67 75 78 78 71 70 65 67 65 64 63 62 70 71 70 72 80 90 94 94 96 96
75 77 88 86 79 67 62 64 64 66 69 70 73 74 74 70 71 72 70 66 66 68 74 81 88 91 95 94 94 91 96 95
69 75 72 69 72 69 64 64 64 63 64 67 66 70 70 76 76 76 74 69 72 77 83 88 92 93 93 94 88 94 94 96
64 60 61 64 69 69 69 66 65 68 69 72 74 75 75 74 74 75 73 74 79 82 85 89 91 94 94 95 96 96 96 96
64 68 64 69 74 68 63 59 64 71 72 72 72 71 70 72 76 77 77 80 91 89 85 89 91 92 93 95 95 94 96 97
70 68 64 64 68 66 62 64 72 71 69 69 70 72 74 77 82 82 80 84 94 90 87 88 92 92 91 92 93 94 96 97
60 61 64 65 63 65 65 71 68 58 54 58 63 63 68 73 78 84 86 88 89 89 91 92 90 89 90 90 94 95 95 97
54 64 62 54 59 68 68 58 51 52 54 57 58 62 67 76 78 82 84 86 84 91 92 92 91 92 92 91 96 95 95 96
59 64 59 59 66 63 59 50 48 49 51 55 55 62 74 77 82 82 84 84 83 86 89 91 93 92 92 92 92 90 91 94
63 60 57 54 53 48 49 46 45 47 46 53 61 62 75 81 83 84 87 88 88 89 89 91 90 86 85 88 86 80 76 75
59 55 56 56 59 47 47 48 48 48 50 54 57 63 69 82 87 88 90 88 83 85 87 89 85 77 75 72 74 75 74 75
66 63 62 57 59 62 60 58 55 50 51 56 60 61 67 80 85 88 88 86 83 87 86 87 77 67 69 72 72 72 72 73
65 61 59 58 59 65 68 68 64 60 58 59 63 65 66 76 83 87 89 87 92 86 86 74 68 68 65 66 68 73 76 74
67 65 63 64 66 69 70 66 63 63 62 64 68 71 72 77 82 84 86 91 83 86 88 71 71 66 60 74 72 76 79 79
69 67 66 67 68 70 59 54 53 56 55 67 70 70 72 80 83 85 87 93 95 93 84 75 71 57 75 74 79 87 80 80
76 74 73 69 66 55 46 48 49 51 62 68 73 75 75 75 76 91 95 96 94 86 74 74 73 76 75 73 79 90 93 93
74 72 62 58 46 40 46 43 48 54 67 73 78 81 85 85 90 93 92 94 93 88 81 78 76 70 78 78 84 93 93 90

GFSFLT1_sfc_rhum_042.txt.gz
RH
75 82 89 96 98 97 97 98 97 96 95 93 92 90 74 71 76 72 61 64 66 69 67 69 71 69 77 77 75 77 80 92
81 82 88 92 94 93 93 94 95 94 93 88 80 83 83 74 66 62 62 63 65 69 73 74 77 77 85 86 90 89 90 95
80 84 89 90 91 89 89 85 84 77 71 78 76 76 76 73 73 70 66 66 67 66 75 79 82 84 90 92 93 94 94 96
83 83 90 90 80 71 65 64 63 68 74 77 79 78 77 72 74 74 72 70 72 75 80 85 90 91 92 93 94 92 96 94
82 84 75 71 73 72 68 66 64 65 68 66 66 70 71 78 80 80 75 74 80 83 87 90 92 93 91 94 90 96 96 96
72 70 67 70 75 74 71 70 70 71 72 72 77 78 82 81 82 80 78 83 86 86 87 87 86 89 92 94 94 95 97 98
67 70 69 71 72 72 67 61 68 71 73 74 76 74 74 76 81 83 84 88 92 87 82 85 88 90 91 93 93 93 95 97
71 71 72 69 67 65 61 67 72 68 70 72 73 74 73 71 76 81 81 84 90 89 88 89 90 90 91 93 94 93 94 97
74 67 70 69 69 66 63 70 66 57 59 60 61 59 64 68 73 82 85 88 90 88 91 91 90 91 92 92 95 96 95 97
65 71 69 67 69 70 73 59 52 53 54 58 58 60 63 71 77 85 86 87 83 88 91 92 92 93 93 93 96 95 94 95
71 68 66 68 63 62 56 49 50 51 53 56 56 61 67 77 82 82 85 86 87 89 90 91 92 93 94 94 96 93 93 93
67 65 63 60 51 50 51 48 45 47 50 55 61 65 69 82 86 87 87 89 90 88 88 90 92 92 88 88 87 78 75 75
66 64 59 57 56 56 51 53 56 56 57 59 61 66 68 73 82 86 90 92 91 87 87 90 89 86 79 72 72 72 71 71
70 67 65 59 60 63 63 70 71 64 60 63 64 67 70 71 75 82 90 92 91 89 90 91 88 79 70 70 71 70 71 74
70 68 66 63 61 66 69 61 61 59 58 61 68 71 72 75 80 84 88 90 92 93 89 88 84 74 67 65 67 71 74 74
69 67 64 62 65 65 59 57 56 57 56 65 71 75 74 76 78 81 88 92 91 94 96 95 88 66 58 70 72 76 80 81
73 70 69 66 64 61 49 48 50 56 56 70 74 76 76 78 81 85 92 95 95 92 96 98 78 60 75 75 83 91 88 88
72 77 73 65 58 48 45 49 51 56 60 68 76 79 82 85 87 92 95 94 92 91 88 81 77 75 74 74 84 85 86 86
76 74 59 53 44 44 50 50 54 57 65 72 78 80 85 90 93 94 91 91 93 90 85 80 76 75 76 81 82 84 84 80

GFSFLT1_sfc_rhum_045.txt.gz
RH
72 76 80 81 83 83 86 87 93 95 97 95 92 81 64 61 62 51 54 50 54 52 50 54 50 50 52 52 57 52 52 54
74 79 82 83 82 83 91 97 97 96 90 74 62 63 57 50 44 49 50 49 51 56 51 53 54 54 60 60 54 57 48 55
71 72 78 79 81 82 90 86 87 76 60 53 50 50 49 48 49 54 52 55 55 53 58 56 59 53 60 62 62 54 50 57
63 66 70 74 75 73 64 62 64 60 57 55 54 53 54 50 50 47 53 57 58 60 62 61 62 57 54 60 62 65 56 57
60 59 57 58 57 57 51 52 51 55 56 52 52 45 44 54 54 52 50 61 62 60 61 62 62 58 59 58 56 65 66 59
56 51 49 52 58 59 59 56 55 56 58 57 54 59 59 57 57 61 61 62 63 61 62 62 60 56 59 63 62 62 60 64
51 50 51 52 61 62 59 54 55 59 59 61 61 62 58 51 53 53 54 56 58 63 59 62 62 61 61 60 65 68 65 65
53 52 53 55 55 56 54 53 56 56 57 55 55 53 48 44 44 44 49 51 56 60 65 65 60 64 66 66 68 69 70 69
55 54 54 55 58 52 53 54 51 46 47 48 47 44 40 41 46 46 50 52 52 59 64 66 67 68 69 71 73 72 75 80
54 56 60 57 55 58 61 48 43 42 47 46 45 46 48 50 54 59 57 60 57 64 68 69 69 70 72 74 74 74 77 77
57 55 58 54 55 51 52 47 46 43 40 45 44 49 50 54 60 62 63 62 63 65 66 67 66 67 69 73 73 67 75 76
54 51 48 43 43 42 42 45 43 42 41 45 49 48 50 52 53 56 57 63 63 67 67 63 62 66 69 69 66 64 60 58
50 50 48 48 50 52 57 59 54 49 45 47 46 48 51 52 51 51 57 59 63 67 69 66 67 68 68 65 62 54 55 54
52 49 48 49 56 54 48 48 39 38 35 37 42 49 49 49 50 54 53 58 62 68 72 73 71 70 74 72 56 54 54 54
52 49 49 49 51 50 40 39 39 36 35 37 48 53 53 53 54 53 61 65 69 70 70 73 78 81 82 68 52 54 54 54
51 50 50 47 46 41 36 34 35 38 39 41 52 57 56 54 56 62 66 72 73 73 80 81 95 80 65 58 54 58 59 60
52 53 51 47 43 37 35 35 37 42 41 45 52 60 56 58 62 68 72 74 72 70 77 79 67 56 75 75 70 60 60 54
59 58 49 47 37 35 34 37 41 43 43 45 52 60 59 60 63 66 69 72 74 76 72 66 65 58 74 78 79 55 53 50
60 52 45 36 33 35 42 40 44 47 48 49 51 58 61 64 68 67 71 76 79 71 74 64 58 58 72 78 76 58 56 49

GFSFLT1_sfc_rhum_048.txt.gz
RH
48 47 48 40 47 53 63 73 84 93 98 99 97 85 59 53 47 43 44 43 45 42 42 46 41 41 42 44 46 39 38 34
52 56 55 56 62 66 70 76 82 92 91 80 64 50 46 42 34 40 40 40 43 46 39 43 44 46 49 47 41 40 35 36
60 59 60 59 63 66 66 64 66 60 54 43 40 39 34 33 36 44 43 46 46 43 48 44 46 39 43 45 45 40 35 35
55 58 60 62 65 61 54 54 55 49 42 40 41 41 38 36 38 37 43 46 46 48 48 44 43 40 36 43 43 46 41 37
43 40 42 45 49 47 43 46 43 44 44 38 38 32 33 39 40 40 38 48 47 43 42 42 43 41 44 40 35 48 45 43
34 32 34 34 43 43 41 38 38 42 44 41 40 42 42 40 40 44 46 44 44 39 39 43 44 40 42 48 50 49 44 44
32 31 34 38 49 49 47 42 42 44 44 46 47 48 42 35 34 34 31 31 32 36 36 42 44 45 48 48 50 50 50 49
35 36 36 38 43 46 44 40 42 43 45 43 41 39 36 34 35 32 33 29 30 33 37 43 42 46 51 51 50 52 53 53
35 36 38 39 43 42 41 40 40 39 39 37 36 34 31 32 33 35 34 34 35 39 44 46 49 52 53 53 53 52 56 60
38 39 41 42 44 46 46 41 37 37 41 40 39 38 38 37 40 41 41 44 39 44 48 51 50 52 53 54 55 56 55 60
39 41 47 44 44 46 46 37 35 34 34 40 36 36 36 39 43 43 42 41 40 43 44 44 44 47 50 53 52 48 54 56
43 43 44 43 40 39 36 33 33 40 41 42 39 35 32 32 34 34 34 36 32 33 34 39 42 45 50 54 56 52 58 51
40 40 38 36 36 36 43 42 43 48 42 30 28 29 30 30 31 32 35 35 37 38 41 45 46 50 55 61 60 65 61 52
39 39 38 38 42 44 44 39 35 26 22 24 26 28 29 30 32 34 36 39 42 42 45 48 49 56 59 64 65 72 58 48
39 38 37 38 41 36 33 32 26 24 24 23 25 30 33 34 36 38 42 43 46 48 49 58 72 75 71 78 63 55 52 47
39 37 36 35 33 33 28 25 26 27 25 24 28 35 36 37 40 43 45 49 48 49 56 62 65 62 51 56 50 50 49 48
37 34 34 33 31 25 25 26 28 29 27 28 30 35 37 42 44 48 48 47 48 53 52 53 54 44 75 72 71 47 46 43
37 36 36 32 28 24 25 26 29 30 30 28 30 34 38 43 42 45 48 52 54 59 61 57 58 54 72 79 70 46 46 43
38 40 35 28 24 25 30 26 28 31 31 32 33 37 40 42 46 49 48 54 60 66 72 68 58 49 74 74 72 49 48 46

GFSFLT1_sfc_rhum_051.txt.gz
RH
34 33 33 28 31 38 53 75 85 81 86 95 84 94 88 68 53 49 48 42 41 39 42 47 42 40 43 44 47 38 36 33
37 40 39 36 42 49 70 77 72 74 69 61 55 55 51 44 36 38 38 38 40 45 37 42 44 39 43 44 41 41 35 33
45 46 49 50 53 60 74 66 66 56 43 44 44 42 35 30 35 41 40 43 43 38 48 41 41 40 39 40 44 41 36 34
46 48 57 64 68 61 58 50 49 42 37 36 36 34 36 34 37 37 42 42 41 43 42 42 41 37 35 41 41 43 41 37
42 45 50 52 49 44 37 38 38 36 35 33 37 30 36 39 38 37 36 43 40 37 37 37 40 39 42 41 35 46 44 42
34 35 36 36 41 40 39 37 34 37 36 35 36 36 38 38 40 41 39 40 37 36 34 36 41 39 41 45 47 46 42 42
28 27 29 36 42 42 40 36 35 38 39 41 41 43 40 36 35 36 32 29 27 30 29 36 39 40 42 42 58 57 52 54
28 29 30 38 42 43 40 35 37 40 43 43 42 40 39 38 35 33 33 28 28 32 35 38 36 38 41 47 55 59 51 58
28 29 31 34 38 40 37 36 38 39 40 39 38 35 33 33 33 33 34 34 35 38 38 38 39 40 47 44 59 60 56 66
29 30 33 35 38 40 40 38 36 36 38 37 38 38 43 40 37 38 36 38 31 34 38 39 38 38 38 45 54 55 61 61
30 31 36 35 38 40 44 39 35 34 34 39 38 46 35 35 37 36 35 34 32 31 33 33 33 35 37 39 52 49 57 63
32 33 36 38 40 44 42 35 32 33 37 41 48 35 30 29 30 30 29 32 30 32 33 34 36 38 37 41 53 54 49 54
32 36 39 40 40 38 35 35 38 42 43 48 29 27 28 28 26 27 30 32 35 35 36 36 38 36 38 44 48 48 53 57
35 36 37 36 36 36 38 39 42 45 29 22 24 24 24 26 27 30 31 34 37 38 38 40 40 49 57 58 58 58 64 60
35 36 35 36 38 38 34 38 32 25 21 21 22 24 27 30 31 33 36 37 40 40 40 42 56 61 54 54 56 59 57 53
34 35 35 35 36 33 31 31 26 23 23 21 23 27 29 31 34 37 38 41 40 38 41 46 53 54 51 48 50 54 51 49
33 33 34 34 32 29 30 25 24 25 22 22 23 26 28 32 36 40 40 39 38 41 49 56 58 49 77 71 68 50 45 42
35 34 33 31 29 26 24 24 25 25 24 22 23 26 29 32 30 33 39 43 42 49 57 57 64 61 75 76 66 49 47 42
34 32 32 28 25 24 26 22 23 24 24 25 25 29 32 33 36 39 41 42 45 51 58 60 70 78 76 73 69 53 46 45

GFSFLT1_sfc_rhum_054.txt.gz
RH
29 30 32 29 47 54 79 85 88 86 92 92 91 87 88 82 71 64 64 58 57 64 66 64 63 63 67 69 68 63 63 60
37 39 44 42 54 71 86 86 82 86 86 83 71 70 68 64 56 56 54 54 53 63 64 62 64 64 64 60 62 63 64 61
42 48 52 52 64 84 83 76 78 74 68 65 64 64 59 54 56 57 58 57 56 54 64 62 64 63 61 65 66 69 64 64
48 52 60 66 79 82 68 70 69 68 57 54 56 58 58 54 58 60 58 55 53 54 57 62 62 60 64 66 64 65 70 65
45 56 69 71 68 75 65 65 60 53 50 51 56 50 53 58 59 57 57 58 53 51 51 54 58 63 64 67 53 68 68 70
45 58 61 62 65 64 57 49 46 49 48 52 57 53 61 58 57 56 53 54 54 49 48 55 57 64 65 66 67 71 72 71
40 43 44 47 60 61 58 47 44 49 50 54 54 62 59 60 59 57 54 51 48 46 44 56 60 63 64 65 66 71 77 77
38 38 40 45 51 55 52 45 45 50 56 58 60 59 57 51 50 55 53 51 53 55 58 60 61 60 62 66 68 75 80 83
34 35 40 46 51 51 49 43 46 50 56 55 56 50 55 53 56 50 56 56 58 57 58 59 59 60 63 64 68 74 80 86
32 34 40 44 48 53 54 46 46 50 54 56 52 54 52 52 51 54 58 57 40 52 53 54 55 56 59 63 66 71 73 81
32 33 41 42 44 47 56 51 46 46 47 53 51 50 51 54 50 51 50 49 48 50 52 54 55 56 58 60 64 68 73 81
34 34 39 42 52 50 55 49 43 44 49 53 55 56 48 41 44 45 43 46 46 48 50 52 53 55 56 61 66 62 67 70
33 35 43 45 49 52 53 49 44 46 49 55 60 55 40 42 42 40 44 46 50 50 52 52 52 55 65 69 70 70 71 72
33 38 44 45 48 50 46 48 47 47 45 54 42 36 36 40 41 44 45 48 50 52 52 56 55 67 67 69 70 68 71 72
36 40 43 43 45 43 46 48 48 43 40 29 34 34 39 44 46 47 50 51 54 55 55 55 61 62 63 62 54 64 72 66
37 39 42 40 44 46 42 43 40 34 30 30 35 40 40 43 48 52 52 55 52 54 54 62 66 64 56 68 63 66 68 67
35 36 38 40 42 42 38 38 35 34 32 31 33 36 37 46 50 54 55 54 53 56 61 66 70 55 73 74 70 66 62 61
34 36 38 41 41 36 36 32 34 32 33 29 31 36 39 46 42 43 50 58 59 61 64 67 72 70 78 79 66 61 66 68
37 39 40 38 34 32 35 27 30 32 31 29 31 37 39 42 46 50 56 60 62 63 65 67 77 71 91 87 70 66 70 68

GFSFLT1_sfc_rhum_057.txt.gz
RH
33 36 45 52 62 78 85 92 94 96 96 98 98 98 96 93 84 72 71 71 69 75 74 69 70 71 73 74 68 67 68 69
38 45 48 60 86 91 92 90 93 93 97 98 98 96 95 84 76 70 67 63 65 72 74 72 71 67 68 66 68 66 70 74
51 55 61 76 93 95 92 86 92 91 87 92 83 84 78 72 70 69 66 64 65 65 67 67 65 64 69 68 70 73 72 70
59 62 94 97 97 95 88 88 88 84 86 84 80 75 74 72 72 71 66 64 61 61 62 65 64 66 68 68 68 69 73 73
60 81 92 96 96 93 84 84 84 84 83 72 72 66 63 69 75 73 66 62 58 56 54 56 60 65 64 71 62 72 76 78
70 79 79 86 89 93 85 84 81 75 57 64 64 70 70 68 64 65 66 60 58 55 54 56 62 70 73 75 77 71 76 77
70 74 78 84 88 90 90 75 56 59 63 67 69 72 69 66 62 57 60 54 58 60 56 64 65 64 66 70 74 76 81 84
72 75 75 73 72 72 63 59 61 62 68 67 61 60 57 58 60 59 55 58 60 63 62 66 68 67 68 71 73 80 83 87
58 57 61 64 62 62 57 59 62 66 65 63 59 62 66 56 52 58 61 63 62 58 55 57 59 59 62 67 75 78 84 91
50 55 59 63 65 63 64 60 63 67 65 63 62 58 52 52 56 58 64 58 43 54 57 56 58 58 61 66 73 72 82 84
46 52 58 58 60 63 68 58 56 55 62 63 55 50 49 56 56 56 54 51 50 54 55 57 58 60 63 72 80 80 83 88
49 51 52 52 53 54 65 51 47 52 54 56 52 50 54 48 46 49 47 49 50 52 55 56 58 64 75 79 78 77 80 80
48 50 50 52 57 59 51 50 53 59 54 54 57 60 52 43 43 45 51 50 54 53 56 58 60 72 73 74 77 77 80 78
48 52 56 56 59 57 54 52 54 60 63 55 57 59 40 42 49 52 50 51 53 55 54 59 65 71 67 71 74 76 71 75
45 50 54 57 57 54 54 66 65 54 47 50 46 41 44 48 50 50 53 54 54 56 58 64 68 70 68 71 64 69 77 76
51 54 60 66 62 60 56 58 52 46 40 36 47 47 47 47 52 56 56 59 57 58 62 67 71 69 63 72 72 69 72 73
52 56 54 54 56 52 52 53 48 41 39 40 43 44 45 49 52 53 54 55 57 61 68 71 72 62 75 73 72 74 78 73
49 50 50 50 47 45 48 46 42 41 38 39 42 44 46 50 46 49 55 61 67 71 68 67 73 78 78 81 85 81 72 72
52 52 52 48 43 42 38 36 40 38 39 37 39 42 44 48 54 57 63 66 69 74 72 69 77 80 85 89 82 91 77 78

GFSFLT1_sfc_rhum_060.txt.gz
RH
62 63 52 55 59 74 83 88 94 96 96 97 98 97 96 92 86 79 75 78 76 80 79 77 73 72 76 71 66 70 72 69
64 59 51 58 80 86 88 92 94 92 94 98 99 97 96 90 82 74 72 72 73 75 76 71 69 68 72 67 70 67 71 75
46 50 64 85 91 90 93 88 91 88 85 96 92 92 92 82 80 76 70 72 74 70 72 69 66 70 69 68 70 76 75 75
58 63 94 96 96 95 90 89 89 87 83 89 87 81 81 80 80 78 73 70 68 67 65 67 67 70 69 70 72 71 74 77
77 92 96 94 94 96 88 86 87 86 92 91 82 80 76 78 80 77 74 66 64 61 63 66 68 72 70 76 71 76 81 80
88 96 96 96 96 95 94 94 92 89 91 86 77 77 76 80 81 76 76 72 66 61 62 66 72 77 74 73 76 74 81 80
83 88 92 95 95 97 97 96 92 89 85 79 76 76 82 80 79 76 65 61 64 62 63 69 70 71 72 76 78 79 84 90
89 93 94 96 96 95 94 85 71 75 74 74 75 69 67 64 66 61 58 61 66 62 64 64 67 66 65 67 70 73 80 90
84 88 89 88 87 88 75 66 73 69 62 65 65 64 68 65 60 64 65 66 65 67 59 60 59 60 64 70 77 79 83 92
80 78 75 71 70 71 68 68 71 64 63 65 64 61 58 66 64 64 72 66 56 58 57 59 60 62 70 74 84 87 87 90
70 69 66 61 61 64 70 69 67 64 64 64 58 54 58 60 68 67 63 54 53 56 58 59 59 68 74 78 83 83 82 86
63 63 61 60 62 65 70 68 63 61 62 62 56 59 61 59 55 58 51 52 54 56 58 57 59 70 74 78 78 79 80 83
55 59 62 66 66 74 67 60 53 52 53 57 61 60 62 58 49 50 53 54 57 57 58 57 60 72 76 72 74 74 76 78
51 58 62 62 68 61 59 55 53 55 60 59 70 73 47 49 51 51 52 54 56 58 58 61 63 75 72 73 74 77 80 77
55 60 60 69 61 56 55 61 67 68 62 63 59 52 52 53 55 58 59 59 59 58 61 64 71 74 71 72 72 75 77 78
68 73 74 66 64 66 70 69 69 61 54 49 56 55 51 52 53 55 56 58 59 65 69 72 74 75 70 79 77 81 76 75
68 72 70 71 75 75 70 64 54 42 43 46 48 52 51 53 54 53 55 56 61 68 71 76 77 66 71 76 74 78 86 90
67 68 68 69 67 63 58 45 42 42 43 44 52 54 51 50 46 53 57 65 67 68 70 75 77 79 82 76 81 92 94 86
64 62 63 59 54 46 43 37 40 42 43 47 46 47 47 52 53 59 64 70 68 69 72 77 79 78 82 84 90 89 92 85

GFSFLT1_sfc_rhum_063.txt.gz
RH
72 74 72 67 71 76 92 91 96 96 97 98 98 97 97 92 89 84 79 81 79 80 79 80 71 76 75 70 67 74 72 68
68 74 73 70 75 89 94 94 96 92 95 97 98 96 96 88 83 78 79 80 78 79 77 73 71 70 70 66 72 68 75 77
68 77 72 79 89 89 96 90 96 90 85 98 96 95 94 85 84 80 76 77 74 72 72 70 69 74 71 70 72 79 78 80
65 71 76 92 93 95 95 93 92 89 90 89 92 88 85 85 86 84 79 77 73 71 71 74 72 73 74 74 76 74 76 80
54 59 89 92 86 94 94 94 92 93 93 95 91 87 83 86 86 82 79 75 71 69 69 71 73 77 75 78 76 80 83 82
53 61 80 89 94 97 95 94 93 91 92 94 88 86 83 86 85 80 82 76 71 65 67 73 79 78 74 74 78 79 87 85
72 74 90 92 97 97 96 95 94 93 95 94 88 84 83 87 88 88 79 76 74 68 62 70 72 68 69 74 76 74 83 90
96 96 94 94 95 98 96 95 96 96 96 93 90 83 82 81 84 77 73 75 70 64 67 72 63 64 65 66 71 74 78 85
93 95 96 94 95 96 96 97 86 86 85 89 78 74 78 76 70 73 74 69 70 76 76 61 57 61 67 73 79 84 88 92
90 94 95 96 97 96 93 82 78 73 74 73 67 63 63 63 67 72 86 82 76 70 61 63 64 68 72 79 85 84 85 86
89 93 93 93 90 90 81 73 67 66 63 58 57 62 62 65 76 84 82 77 64 60 61 62 64 71 77 77 82 84 80 86
87 84 81 78 77 78 75 71 67 66 66 62 58 63 67 70 71 73 77 67 57 60 61 62 64 70 77 79 80 80 78 82
80 78 75 70 70 71 72 72 66 63 61 59 66 69 70 82 87 81 59 60 58 61 63 61 61 68 77 80 77 75 80 82
76 78 72 69 70 79 77 70 65 56 59 66 78 80 86 68 59 61 58 57 57 61 62 65 65 70 79 79 76 78 81 84
66 74 75 83 83 74 63 62 63 66 71 77 77 68 65 58 59 58 60 60 61 62 66 70 73 74 79 75 73 80 82 80
63 77 88 83 76 69 66 69 73 75 74 66 70 66 57 59 56 57 57 57 58 65 70 71 76 76 72 79 80 85 87 84
72 80 81 74 74 78 74 78 81 69 69 65 64 59 55 56 57 56 58 60 67 67 70 75 78 72 76 82 83 85 82 84
82 80 74 76 76 75 81 75 66 55 60 57 58 55 52 55 53 55 60 66 71 69 71 72 77 82 81 82 80 84 89 94
83 82 80 82 77 62 54 48 55 53 54 52 51 55 56 55 56 61 65 71 74 74 76 76 82 78 81 83 84 93 94 92

GFSFLT1_sfc_rhum_066.txt.gz
RH
77 85 83 81 80 82 95 96 96 97 98 98 98 98 98 97 93 86 80 81 81 84 80 82 78 76 74 70 70 76 72 70
76 83 85 80 83 93 96 97 98 95 97 98 98 98 96 94 78 78 77 79 78 80 80 75 75 71 70 68 74 70 76 79
75 87 89 81 83 92 96 95 96 93 86 97 93 96 95 86 81 81 83 82 79 74 75 73 73 74 73 73 74 80 80 81
72 80 86 82 85 92 94 94 95 90 93 96 97 96 89 89 91 87 83 81 79 74 74 75 77 76 75 76 76 74 77 81
68 75 86 84 83 92 92 95 95 94 94 96 92 95 86 86 89 86 84 81 78 74 74 76 77 79 73 80 72 81 81 79
68 68 76 83 93 96 97 96 95 95 94 94 93 92 90 90 88 85 86 79 73 71 74 77 73 80 74 76 80 83 86 85
62 68 87 95 98 99 98 97 96 96 96 96 94 93 89 92 91 93 87 85 78 73 65 70 75 70 67 72 75 75 84 88
73 86 93 97 98 99 98 96 97 96 96 96 95 93 86 86 89 88 80 78 76 73 70 74 66 64 64 71 72 73 77 82
77 81 94 95 96 97 96 96 95 97 96 95 97 92 93 88 85 77 78 76 71 77 83 80 65 61 68 71 76 81 87 91
85 92 93 95 96 95 96 94 95 96 96 97 94 94 88 80 72 67 79 83 78 86 88 80 61 62 68 76 82 82 87 87
90 96 94 94 94 91 95 96 94 90 90 90 86 78 70 65 74 83 81 88 83 92 80 65 63 67 74 81 84 84 85 87
90 93 94 96 95 98 97 92 82 79 77 78 74 68 73 82 83 85 81 87 91 73 65 64 65 72 77 81 83 83 83 80
93 93 94 96 96 96 91 87 77 76 73 78 80 74 72 79 83 84 89 84 72 68 66 65 67 70 77 82 82 76 83 80
93 94 92 88 91 94 92 84 78 70 74 73 71 75 82 89 87 90 78 69 64 61 62 65 69 71 73 82 82 80 81 83
91 93 91 88 92 90 83 85 77 75 74 74 82 84 83 77 67 62 65 61 60 61 64 69 74 75 76 81 78 81 85 84
83 92 94 94 90 87 84 80 77 75 76 80 89 81 67 63 62 59 59 59 57 61 69 72 76 77 73 81 82 86 89 88
78 88 90 93 88 86 85 87 87 82 85 87 70 66 56 57 60 59 60 58 63 71 71 73 74 69 77 84 87 88 86 85
83 92 90 89 90 86 93 92 82 76 65 60 55 56 58 61 56 56 57 62 68 71 72 73 75 78 80 84 85 90 86 88
93 90 91 91 90 84 76 65 61 55 53 52 56 60 60 57 57 59 62 68 71 75 77 79 82 78 81 83 87 91 92 92

GFSFLT1_sfc_rhum_069.txt.gz
RH
62 61 61 58 64 66 72 80 84 83 87 89 89 91 89 87 85 78 68 65 68 66 57 60 52 52 51 48 50 48 44 44
60 63 64 66 67 68 73 81 84 81 83 89 88 91 88 88 77 67 69 64 72 64 57 59 57 51 50 54 50 52 49 51
66 69 70 69 64 69 77 75 81 76 68 72 72 76 78 77 66 65 68 73 64 61 61 56 56 52 57 56 54 51 51 53
65 68 73 75 72 76 74 74 76 74 74 76 79 81 77 73 69 70 66 65 60 60 59 57 57 51 51 57 57 56 50 55
59 62 67 73 70 73 70 75 77 78 78 78 78 77 79 73 70 71 66 65 62 57 57 58 57 54 57 57 56 58 56 50
62 59 60 67 72 80 79 79 78 78 80 79 83 84 84 78 75 70 68 65 61 56 57 59 60 59 66 64 64 62 54 47
57 56 57 66 80 83 84 81 80 82 82 82 81 85 85 75 68 68 65 61 58 59 54 61 64 61 67 66 61 61 54 53
60 58 64 69 81 83 84 80 84 84 88 86 83 88 85 75 68 66 65 61 58 60 60 65 56 74 76 65 57 57 56 53
55 55 61 71 80 82 81 81 79 84 87 86 83 88 90 70 66 63 62 59 58 61 64 73 79 84 69 62 58 51 58 65
49 53 62 68 78 82 83 80 82 85 86 86 87 92 83 72 70 66 66 64 60 67 78 90 92 73 55 57 51 56 63 66
51 55 65 69 72 73 81 79 77 86 84 85 85 85 78 73 73 70 67 64 64 76 94 94 74 52 54 58 56 58 63 64
58 64 65 68 71 73 79 80 84 83 81 83 83 79 74 72 71 69 68 77 88 94 92 71 52 51 54 58 59 59 62 62
63 69 75 74 76 78 84 86 86 77 74 76 74 72 73 73 74 74 74 90 89 86 67 51 49 50 52 57 58 56 62 63
67 74 78 80 80 86 84 82 74 65 64 74 77 75 74 72 78 86 91 83 69 57 52 53 50 52 53 56 58 60 62 61
65 71 73 77 80 82 79 78 68 70 74 76 77 71 77 91 87 78 71 68 54 52 52 50 55 54 55 56 56 61 63 61
65 69 76 77 80 81 79 76 74 71 73 73 83 88 94 88 76 64 70 59 48 46 49 54 56 55 50 54 56 62 64 64
60 73 78 79 80 78 78 77 76 78 81 85 90 91 78 64 63 72 64 49 51 53 53 57 57 47 69 83 75 57 58 61
66 75 78 78 77 74 77 74 72 73 78 79 66 58 53 65 64 48 49 57 56 56 58 58 57 57 77 81 84 57 56 57
78 77 78 76 74 74 74 63 63 62 57 53 54 61 62 60 47 53 58 52 56 55 57 59 61 54 77 80 83 61 61 62

GFSFLT1_sfc_rhum_072.txt.gz
RH
57 54 52 48 46 45 49 59 70 69 68 66 61 63 76 80 73 67 70 58 58 53 48 49 40 39 38 35 39 35 34 33
46 48 48 46 50 49 55 62 69 67 62 55 57 72 81 83 74 70 67 66 57 53 44 47 43 41 40 44 42 44 39 39
43 45 50 51 51 54 56 58 65 62 48 47 53 62 78 76 61 70 62 61 56 51 48 46 44 42 46 46 45 41 41 42
45 45 48 50 50 53 50 51 53 57 52 46 55 60 66 68 65 71 62 62 54 47 48 46 48 41 42 47 46 48 43 44
40 42 44 49 48 46 45 45 50 56 58 55 62 56 62 61 67 63 55 58 49 46 47 49 48 40 45 46 44 48 48 43
33 38 39 40 45 50 52 51 56 58 64 62 61 60 61 70 89 82 62 58 51 46 48 50 48 42 48 54 54 53 43 40
37 34 36 39 51 58 60 58 59 60 65 68 68 67 73 76 86 83 60 52 52 52 45 49 49 51 53 54 66 68 51 38
36 36 38 39 49 60 61 59 57 59 67 70 77 74 74 72 74 71 54 52 53 54 51 53 49 50 72 82 76 46 42 40
34 35 38 40 49 58 58 56 56 58 67 74 74 70 70 68 71 60 54 52 50 51 53 50 50 81 86 78 55 42 44 46
29 33 37 42 50 56 57 52 51 59 70 74 75 74 74 73 73 63 56 53 48 56 54 62 81 92 85 60 45 45 46 48
29 30 36 40 44 47 55 48 48 54 62 70 74 72 72 78 74 63 58 56 54 59 70 86 94 86 58 48 44 43 46 46
31 32 33 39 43 47 51 49 45 51 61 70 76 74 81 83 74 68 63 60 62 76 91 94 76 52 44 46 44 42 45 46
32 35 37 40 46 48 48 50 51 53 59 72 82 86 83 84 81 74 75 81 86 94 90 68 49 39 42 42 42 38 43 45
36 40 44 44 45 49 48 55 58 60 66 78 80 82 84 86 89 90 95 92 84 80 59 47 42 41 38 40 40 42 44 44
30 39 44 49 51 54 56 62 62 65 71 76 81 82 83 87 94 95 94 87 75 66 59 45 44 38 38 40 38 41 42 41
27 34 42 51 58 62 62 67 69 72 72 75 76 80 86 94 93 92 78 60 70 67 42 38 41 42 35 38 36 40 41 41
25 36 47 57 63 65 69 73 72 68 68 72 75 83 86 88 88 71 74 70 55 39 43 47 46 34 63 75 66 42 38 39
41 46 54 59 63 64 73 70 67 69 69 74 75 74 72 61 54 52 56 51 47 52 49 44 43 41 72 79 82 43 40 40
55 56 58 58 58 60 64 62 63 66 64 59 50 53 59 56 45 49 57 53 50 45 44 43 43 37 69 78 81 48 43 42

GFSFLT1_sfc_rhum_075.txt.gz
RH
61 58 57 54 57 58 65 76 77 70 71 62 56 60 72 75 80 72 68 56 58 51 47 52 44 38 38 35 41 36 35 36
50 53 50 41 48 47 48 54 68 70 70 54 50 50 71 82 74 66 64 57 56 54 47 51 43 40 40 47 44 47 42 40
47 50 50 42 45 43 45 47 60 61 46 43 41 45 65 69 64 67 65 69 66 53 50 48 44 40 47 48 46 43 42 43
39 42 44 45 45 46 43 50 56 60 44 37 40 57 58 71 70 65 63 60 55 52 49 47 46 44 46 50 48 48 45 44
35 39 44 46 45 45 45 46 55 58 60 43 48 64 61 59 64 64 69 74 61 51 47 46 49 44 46 49 45 49 51 47
33 35 36 39 43 45 46 44 42 47 54 60 48 50 50 61 70 67 77 75 63 49 46 49 52 45 48 49 55 56 49 60
26 29 30 33 44 49 48 43 40 44 62 63 58 56 52 61 71 72 73 75 60 53 46 51 51 50 52 55 62 60 68 55
26 24 29 31 36 44 47 45 44 45 58 68 65 62 61 72 72 70 74 68 60 55 52 55 53 53 54 65 69 74 64 55
26 27 27 28 36 42 46 46 48 46 52 63 65 62 63 65 66 65 71 68 58 55 58 55 53 53 63 66 69 72 66 61
20 24 29 30 34 39 47 47 46 46 51 58 67 67 68 68 66 69 70 70 55 61 60 56 57 63 78 82 75 66 51 48
20 20 26 29 33 35 49 47 42 43 46 57 69 68 70 72 74 76 80 80 70 62 64 63 80 91 92 86 65 46 46 47
22 22 23 27 32 37 44 45 39 39 45 56 72 76 70 81 81 91 94 82 66 69 83 90 92 94 88 66 48 48 43 45
21 23 24 26 32 35 40 45 40 38 45 56 76 81 92 90 89 89 89 89 89 93 92 88 92 77 59 54 51 42 42 42
20 24 27 29 33 37 39 43 42 38 52 72 87 89 87 85 86 90 92 95 96 92 90 88 78 65 51 41 39 42 43 42
19 24 28 32 34 39 40 44 46 53 77 78 86 87 87 90 91 88 90 93 92 93 92 88 79 51 39 37 38 40 39 37
16 20 27 34 40 43 43 52 60 63 73 80 89 90 89 86 87 89 91 89 87 72 74 74 52 37 35 41 38 37 36 36
17 19 24 38 46 52 56 64 66 69 77 83 87 89 87 92 91 88 85 72 69 71 62 40 44 40 72 64 59 40 37 36
27 26 33 45 52 66 72 73 73 75 80 86 84 84 85 82 73 70 65 59 55 52 44 49 48 42 71 72 78 44 39 37
39 40 45 48 59 67 73 72 76 79 79 76 74 72 64 53 49 47 49 50 52 52 48 44 43 36 73 76 81 49 45 44

GFSFLT1_sfc_rhum_078.txt.gz
RH
83 82 79 81 83 83 86 85 87 84 83 70 66 74 74 78 84 88 79 79 78 80 77 74 70 66 66 63 60 57 60 61
73 73 69 75 80 80 77 77 80 81 88 74 66 69 84 90 85 77 80 78 74 77 70 73 73 66 64 66 68 64 64 65
64 61 64 69 73 74 75 73 78 76 77 62 58 64 76 86 83 82 82 80 77 72 74 72 72 68 72 70 69 72 69 70
55 55 60 60 65 66 62 67 70 68 69 62 57 69 81 86 88 85 78 84 84 84 73 72 70 71 74 75 70 67 75 73
50 53 57 54 56 55 51 50 64 67 68 56 58 58 72 74 85 77 75 80 76 69 65 70 71 71 72 75 67 73 69 75
44 46 51 49 52 53 53 50 57 62 67 74 60 74 75 81 79 83 84 85 84 90 76 71 72 71 75 72 78 70 75 71
36 40 43 45 54 57 57 55 57 62 68 70 74 72 71 72 81 87 85 85 86 80 69 70 74 70 73 79 79 78 75 66
39 37 40 45 50 55 57 55 53 56 70 69 71 71 71 72 78 83 84 85 82 76 73 74 75 72 77 81 83 81 72 73
32 37 38 39 47 54 54 52 53 48 66 71 70 71 67 74 76 84 79 79 76 73 76 71 76 77 84 82 83 81 74 76
28 29 36 40 40 50 56 52 50 50 60 71 75 71 74 78 86 85 79 80 75 77 73 80 83 78 82 85 82 79 84 86
24 27 33 37 40 41 52 52 48 50 53 63 70 74 74 79 85 81 83 87 83 83 82 84 88 90 89 87 89 89 91 80
26 26 27 33 37 43 49 51 50 51 52 60 70 76 80 88 88 90 92 93 91 92 92 93 94 94 95 96 96 87 71 66
23 27 28 31 38 40 46 53 53 51 51 59 79 87 87 92 97 95 92 93 92 94 96 94 95 96 97 93 83 68 67 64
22 26 28 30 34 43 46 54 53 49 51 79 88 95 95 94 93 92 92 93 94 93 91 92 94 91 90 85 71 68 62 62
18 25 29 33 38 42 44 56 61 77 77 90 95 94 93 94 95 94 92 91 92 92 92 92 92 89 80 70 57 59 59 54
16 19 30 35 41 48 49 75 81 85 88 90 95 96 96 95 95 94 94 92 92 91 93 93 86 75 63 60 55 55 53 52
19 19 26 38 46 54 72 79 84 85 91 96 96 95 95 96 95 94 92 91 90 88 83 81 76 58 75 68 58 53 52 54
26 28 28 50 70 74 79 81 83 86 91 93 95 95 96 94 89 86 84 85 78 78 74 74 66 64 76 76 69 57 58 59
35 36 52 69 71 76 79 78 84 89 91 90 89 90 88 81 77 75 73 69 68 70 69 61 59 53 78 79 81 65 65 65

GFSFLT1_sfc_rhum_081.txt.gz
RH
88 87 85 86 85 82 82 77 83 90 88 74 65 70 80 88 90 85 75 80 82 93 93 88 81 73 70 66 61 68 63 64
83 80 82 83 84 85 85 91 92 89 86 75 64 65 87 89 87 81 82 81 80 94 84 89 76 71 67 68 70 64 70 71
85 87 81 83 89 88 86 88 90 82 81 65 68 69 80 83 86 87 84 87 92 92 80 82 78 74 73 72 69 76 78 75
86 85 89 88 89 88 80 80 83 77 76 72 75 83 92 90 90 88 89 92 96 90 78 79 80 80 75 75 75 75 77 79
76 75 86 88 84 79 68 67 72 75 78 78 78 69 80 88 94 93 96 95 90 88 84 76 75 74 70 76 73 80 78 82
65 70 72 74 70 73 69 72 74 75 76 80 77 82 80 93 94 92 95 95 90 87 86 82 73 75 76 76 79 81 80 80
59 57 60 65 63 68 67 64 68 72 75 77 81 66 80 85 92 95 96 96 95 92 88 85 77 74 76 72 82 78 77 73
60 60 59 58 59 61 60 58 60 70 76 76 78 78 76 83 89 93 94 93 95 93 90 86 77 79 84 78 81 77 72 72
53 56 55 57 55 57 55 54 55 63 72 76 76 81 75 79 84 91 90 88 90 91 88 86 82 82 80 83 83 82 78 80
45 47 50 52 55 58 56 54 56 59 71 74 76 80 81 84 88 91 91 89 88 89 82 84 88 84 85 87 92 88 86 84
41 42 46 50 53 49 59 60 57 56 57 73 74 80 83 92 93 92 92 91 88 91 93 90 89 93 94 95 96 93 86 89
35 40 40 44 50 54 55 62 58 59 57 74 79 84 89 95 93 94 91 94 96 96 95 94 90 92 96 95 94 92 94 95
30 31 40 41 51 50 51 64 64 60 60 79 83 88 91 94 92 94 96 96 94 93 90 87 94 94 94 94 96 92 91 85
32 33 33 47 50 52 53 62 63 62 79 76 88 91 95 98 98 98 96 96 94 92 91 92 91 92 95 94 88 87 84 74
30 38 37 37 53 56 66 69 69 72 73 93 97 98 98 98 98 97 97 94 95 94 93 92 92 92 87 86 81 80 79 76
23 37 42 45 52 71 70 87 93 95 97 98 99 98 98 98 98 96 95 94 94 93 93 93 92 89 82 83 73 72 59 56
25 28 40 52 73 91 92 97 98 96 98 98 98 98 98 97 97 97 97 95 94 93 93 93 92 72 76 76 67 61 55 56
33 45 68 81 89 92 98 97 95 96 97 98 98 98 98 98 96 93 94 94 93 92 89 86 85 81 78 74 73 62 60 62
48 84 88 91 93 94 94 95 95 96 97 97 95 95 96 94 93 92 91 87 84 84 81 78 78 63 84 82 75 70 73 76

GFSFLT1_sfc_rhum_084.txt.gz
RH
90 91 89 90 88 87 91 90 91 92 90 92 92 88 78 85 87 88 82 85 94 95 93 93 85 75 72 67 64 71 68 68
87 89 90 90 87 87 84 87 92 89 82 79 80 75 76 90 88 83 88 85 89 95 95 92 83 70 69 66 69 70 75 76
89 95 90 88 86 83 80 82 90 79 74 62 60 57 89 92 90 90 87 84 86 92 90 89 74 73 73 75 72 77 76 80
93 89 96 97 90 92 89 84 85 79 73 74 82 85 94 95 95 94 89 86 89 90 86 87 78 70 70 75 74 72 81 83
88 87 86 97 95 93 86 84 82 78 78 72 75 66 74 90 90 88 93 92 93 92 85 82 78 81 79 73 70 78 81 80
89 85 83 88 87 91 88 83 83 75 78 78 75 89 87 93 95 93 93 96 95 95 92 88 92 82 78 74 80 81 82 85
81 78 81 88 82 84 84 77 77 75 78 79 80 81 83 89 88 91 92 94 95 94 89 89 84 82 81 70 72 84 84 82
76 80 83 84 82 80 77 72 72 70 74 76 81 84 83 82 86 88 94 96 97 94 92 93 86 82 81 75 80 81 80 73
69 70 75 75 70 69 69 68 71 73 77 79 79 81 79 78 79 88 91 88 88 86 90 93 90 86 87 90 89 90 94 96
64 63 67 70 70 62 65 66 68 68 74 78 82 84 83 76 85 88 90 87 87 94 94 94 92 90 89 89 94 97 96 96
60 60 61 62 66 68 68 66 63 61 64 74 77 83 84 81 88 92 90 92 93 96 96 95 94 92 92 92 94 95 94 97
50 54 56 57 61 67 69 70 65 62 56 67 74 79 84 85 90 91 92 94 96 96 97 96 94 90 89 91 94 97 93 91
44 46 49 52 58 65 63 69 66 63 65 63 77 83 87 90 90 95 97 98 98 97 96 93 90 87 92 92 94 90 90 92
42 45 46 47 51 59 61 64 69 68 66 74 85 91 93 95 94 96 98 99 99 96 94 92 88 91 92 91 88 91 93 91
36 43 47 44 46 53 60 61 65 68 70 78 81 92 94 95 97 97 98 96 96 95 93 89 92 90 91 90 92 94 93 87
28 39 48 56 60 57 57 62 73 73 74 90 91 97 98 98 98 98 97 96 95 92 93 93 92 91 90 92 89 90 87 78
27 34 44 54 68 76 92 97 98 91 92 99 99 99 99 99 99 98 98 98 98 96 95 94 95 88 100 98 90 84 72 60
35 44 58 82 93 95 98 98 97 98 98 98 98 98 98 99 98 98 98 98 96 96 95 94 94 89 95 92 83 66 63 66
79 92 98 99 99 97 97 95 98 98 98 98 98 98 98 98 96 97 97 96 95 95 95 93 94 84 90 86 79 74 82 79

GFSFLT1_sfc_rhum_087.txt.gz
RH
92 93 92 94 95 94 95 94 92 91 92 93 94 91 91 89 90 90 89 91 91 93 93 93 92 87 83 72 66 70 68 67
87 90 93 95 92 92 93 94 93 89 91 82 83 91 93 91 87 84 83 89 94 95 95 94 88 80 77 70 71 71 78 78
89 92 92 90 91 88 89 89 91 85 81 61 65 74 83 87 88 86 86 85 94 93 94 94 84 79 77 73 71 77 77 82
85 89 92 91 91 88 84 87 88 79 72 65 67 77 90 89 89 91 88 87 88 93 94 92 89 81 76 72 73 70 78 86
79 83 85 90 86 90 88 88 87 84 80 72 72 67 67 64 84 88 92 90 90 90 90 91 88 86 83 74 72 76 78 79
90 94 94 91 84 96 96 88 86 80 84 83 78 76 78 91 95 92 94 94 89 86 91 90 90 83 78 81 81 76 72 75
90 90 88 97 97 97 97 92 86 82 82 82 85 80 86 91 91 96 96 94 94 95 96 91 89 88 89 87 86 81 76 79
91 92 92 95 97 97 95 91 88 81 81 78 78 78 85 85 81 88 92 95 96 95 97 97 93 90 90 91 85 80 84 81
82 83 85 89 90 91 89 86 83 80 80 76 74 76 76 83 82 87 91 87 85 90 95 94 95 93 94 92 93 90 89 94
72 74 78 86 88 85 85 80 78 75 78 76 76 78 79 79 85 87 88 87 86 89 94 94 94 93 92 92 94 93 91 94
66 66 72 77 80 82 84 76 72 69 70 71 72 77 79 79 84 86 87 87 89 94 96 95 96 95 95 93 94 92 93 96
66 64 62 68 75 76 78 76 71 68 65 71 76 80 82 85 87 86 87 89 95 96 96 97 97 97 96 92 90 92 91 94
57 62 62 63 69 73 70 73 70 68 68 68 74 81 84 88 91 88 90 95 97 97 98 97 98 97 94 92 93 91 92 95
54 56 62 62 64 68 71 72 69 69 71 74 72 77 85 89 91 94 97 96 98 99 99 98 98 96 95 91 89 90 91 90
52 57 55 57 59 64 67 69 71 72 73 74 76 77 85 86 89 96 97 98 97 97 98 95 94 94 93 91 89 91 91 91
42 46 52 53 57 58 63 69 71 72 74 74 76 78 90 94 97 97 96 96 95 93 96 96 93 92 91 91 89 93 95 97
31 38 45 54 62 63 64 70 74 79 81 83 98 99 99 99 99 99 100 99 99 98 97 96 96 93 100 99 97 97 97 96
31 34 41 46 74 86 89 95 97 94 98 99 99 99 99 99 99 99 99 99 99 98 98 97 98 98 100 100 96 90 86 85
61 84 92 97 95 99 99 98 99 99 99 98 99 99 99 99 99 99 99 99 98 98 98 98 98 98 99 97 95 90 85 78

GFSFLT1_sfc_rhum_090.txt.gz
RH
88 94 93 94 95 94 95 94 92 94 94 94 96 95 95 91 91 90 86 88 87 91 91 88 86 88 85 73 68 70 66 65
88 91 95 95 95 94 95 96 94 89 92 92 96 93 94 96 86 84 85 86 85 86 89 91 90 83 82 74 73 71 73 74
90 93 95 94 94 92 92 95 94 80 86 85 92 89 86 94 92 90 87 92 89 86 84 92 89 87 86 79 73 77 76 80
80 94 96 94 94 92 88 89 92 84 81 84 84 85 89 85 92 92 89 88 95 91 89 91 91 88 84 79 80 73 78 84
86 78 94 94 92 85 84 85 89 83 77 77 81 76 73 57 81 83 88 90 90 94 95 94 92 90 89 83 83 83 78 78
92 79 79 87 86 86 84 86 82 77 76 75 74 76 70 82 84 84 89 89 90 92 94 96 96 88 84 84 83 83 88 79
91 87 78 79 79 88 93 88 89 85 84 84 79 74 80 83 87 93 96 95 95 94 95 94 91 92 91 91 88 86 84 85
95 97 96 88 87 84 91 89 91 87 87 84 81 80 80 76 75 79 95 95 95 94 97 98 96 95 93 89 89 88 88 87
91 94 95 94 90 87 88 89 92 89 87 84 82 82 81 82 80 80 83 82 86 92 96 94 94 94 93 91 91 92 90 92
81 87 89 92 95 95 93 94 91 88 88 86 84 85 83 78 88 93 90 93 90 94 94 94 94 95 94 94 94 94 94 94
74 78 82 84 88 90 94 90 88 83 84 84 81 83 84 82 88 92 90 92 94 94 95 94 94 97 96 96 96 94 93 94
72 68 70 76 84 89 91 90 85 82 78 81 81 82 82 84 84 84 88 92 91 92 91 93 96 98 97 96 96 97 96 93
73 73 73 73 82 86 87 87 84 80 73 71 76 80 82 85 86 83 85 89 89 91 93 96 97 98 98 98 98 98 96 92
66 75 73 71 75 79 81 82 82 77 77 75 74 80 83 86 86 86 88 91 91 96 95 96 96 96 98 98 96 96 93 89
66 69 72 70 69 73 76 77 74 76 76 76 78 80 82 84 86 88 92 94 92 96 97 97 95 96 97 96 96 95 94 94
54 66 65 68 71 70 72 76 78 74 74 76 74 76 83 87 88 92 96 95 94 94 95 98 97 96 96 97 95 95 96 96
30 44 59 66 66 70 72 75 78 82 81 78 78 84 86 92 92 93 95 96 97 96 98 97 98 97 100 100 97 95 95 98
33 34 44 56 69 76 82 86 89 90 87 90 97 96 96 98 99 99 99 98 99 99 99 99 98 97 100 100 100 98 98 98
35 53 87 98 95 96 98 96 99 97 99 99 99 99 99 99 99 99 99 99 99 99 99 99 99 98 99 99 98 97 97 96

GFSFLT1_sfc_rhum_093.txt.gz
RH
70 88 89 92 92 92 94 95 90 94 97 98 97 96 96 96 95 94 90 83 79 76 74 71 63 55 54 49 51 48 43 43
72 84 91 93 92 93 95 96 96 95 94 96 95 94 96 96 93 89 86 81 79 80 71 74 67 61 56 58 55 57 52 51
73 80 92 94 92 89 92 93 96 90 86 94 95 91 91 92 89 87 85 83 82 82 72 76 67 66 65 63 59 67 60 61
72 82 88 93 92 88 90 88 92 92 88 91 95 95 94 86 84 87 75 77 84 82 74 76 79 71 68 68 67 60 61 61
68 71 84 86 87 85 85 85 90 88 80 79 86 84 89 78 76 75 84 81 90 87 80 76 75 76 74 72 72 73 63 54
69 66 71 80 82 84 83 85 83 80 77 80 76 77 78 83 81 76 84 88 89 91 90 86 80 72 78 82 77 72 75 69
66 63 68 74 82 82 84 85 85 84 82 77 75 77 75 69 76 82 84 81 85 85 82 86 80 76 80 82 84 81 81 81
69 69 68 74 82 82 82 82 83 81 81 76 75 75 71 65 63 64 76 74 70 72 76 77 74 79 79 78 80 83 84 82
66 68 69 72 77 78 79 77 76 77 77 75 70 68 64 63 62 61 65 62 63 66 72 70 73 75 78 80 82 83 85 90
63 65 71 74 82 80 81 78 77 77 76 74 73 72 68 63 65 67 67 65 63 70 72 74 73 75 76 78 84 82 83 86
62 63 68 70 75 82 84 81 80 78 75 74 71 72 70 67 70 71 69 69 70 69 73 74 73 76 78 81 85 82 89 89
58 60 62 64 71 76 85 86 81 77 73 74 74 73 72 73 72 71 69 70 69 70 69 72 75 78 84 88 89 88 94 93
55 56 59 63 68 72 74 80 79 76 72 72 74 76 77 76 76 72 72 73 73 73 72 72 74 82 92 97 97 95 97 97
55 57 58 60 63 69 69 72 72 70 71 75 73 79 78 80 76 73 74 74 72 70 75 76 82 89 96 94 93 94 95 94
47 54 56 57 61 64 66 70 69 69 68 70 72 73 74 72 73 74 78 73 71 72 75 79 84 87 90 92 93 95 96 93
41 46 52 57 60 63 65 67 71 70 69 71 71 70 71 72 76 76 75 76 77 78 83 87 90 91 95 95 96 96 94 96
25 36 48 55 60 61 64 67 70 70 70 72 68 69 70 76 77 78 80 81 81 86 91 94 95 97 100 100 99 97 96 97
29 30 39 49 56 62 63 67 71 74 70 68 68 69 69 71 73 78 79 82 85 94 95 97 98 98 100 100 100 99 99 98
31 36 56 72 76 71 77 72 72 75 77 83 83 83 89 91 90 94 95 99 99 99 98 98 97 95 100 99 98 96 97 97

GFSFLT1_sfc_rhum_096.txt.gz
RH
48 53 65 75 81 86 92 85 89 94 98 98 98 96 97 96 94 95 93 81 70 61 56 55 47 42 44 41 45 41 39 36
46 57 66 83 83 85 93 92 90 92 94 98 97 98 97 98 96 96 94 79 66 65 52 57 49 47 47 50 47 49 44 42
49 57 66 81 80 81 90 90 90 87 88 96 97 95 96 96 96 96 93 81 66 62 56 59 54 48 54 55 53 49 49 52
48 60 76 81 83 75 80 80 91 87 89 92 95 96 96 95 96 96 92 85 68 64 53 54 55 51 54 57 56 56 53 56
42 51 65 83 79 68 70 71 86 84 83 82 88 89 85 80 86 81 86 87 83 71 58 55 60 56 59 60 54 56 53 54
42 45 54 72 75 76 76 70 85 82 78 82 85 83 79 92 84 69 78 81 79 80 78 77 66 61 66 65 64 63 54 52
40 41 44 55 70 72 76 74 79 80 71 69 76 73 79 87 88 81 69 75 68 71 72 75 73 62 61 63 65 69 67 64
42 42 44 50 64 69 72 73 78 74 69 69 76 69 69 75 73 73 57 60 71 76 73 80 71 64 59 61 66 69 69 70
41 40 42 48 59 68 71 70 72 74 76 74 64 58 67 63 58 54 62 54 54 57 59 58 68 69 65 66 70 65 67 71
38 39 43 44 55 62 68 65 68 69 70 70 67 59 60 58 56 55 51 51 48 56 58 59 57 58 59 63 62 64 66 71
36 38 44 43 49 55 66 58 58 61 64 64 61 58 56 54 55 56 55 51 50 50 54 57 56 56 57 60 61 60 64 66
34 36 40 44 48 52 67 67 58 56 56 61 63 60 59 59 56 55 55 56 54 55 54 55 56 56 55 59 61 60 62 65
31 36 39 43 48 51 61 76 68 61 56 56 59 60 59 60 61 56 56 55 56 56 56 54 52 52 55 59 66 65 72 73
30 34 38 41 44 48 50 59 63 58 55 57 58 63 62 63 63 63 59 60 59 57 57 58 56 57 57 60 70 80 83 83
30 34 34 37 41 44 46 49 53 54 53 55 59 60 61 61 63 64 64 62 61 58 57 56 58 54 53 58 70 77 76 78
23 30 32 34 38 42 44 46 50 50 52 56 57 58 59 60 64 64 63 62 60 58 57 56 57 58 61 67 77 88 93 94
16 21 28 33 37 41 43 46 51 52 52 54 54 56 55 59 60 61 61 59 58 58 60 61 67 82 100 100 100 97 99 99
18 19 23 30 38 42 44 47 51 55 55 53 54 55 56 57 57 59 63 71 72 77 84 89 97 94 99 100 100 98 97 97
19 21 25 31 33 40 43 45 52 57 56 54 55 57 58 56 60 64 82 96 96 96 96 94 94 93 97 97 95 93 94 93

GFSFLT1_sfc_rhum_099.txt.gz
RH
35 38 44 57 66 75 82 91 81 86 93 91 95 94 95 91 95 94 90 86 82 73 67 66 46 45 48 46 51 41 40 37
31 39 47 56 75 76 88 85 87 90 91 93 97 97 96 97 93 91 89 86 78 74 55 59 54 47 54 61 49 53 44 42
35 42 49 64 72 74 89 85 85 85 85 94 97 98 96 95 97 93 89 88 83 81 72 64 58 55 61 59 57 49 45 45
34 42 50 60 69 73 75 81 82 86 90 90 96 95 97 98 98 98 95 89 84 74 72 66 63 59 59 62 60 56 53 52
29 38 47 56 65 66 64 72 75 87 85 89 91 96 96 97 96 98 95 90 80 75 67 65 66 55 62 65 58 60 55 57
28 35 41 48 58 68 70 72 75 78 86 79 90 92 94 96 96 97 97 94 82 70 62 64 64 61 62 65 65 67 62 58
26 32 36 46 62 68 68 75 71 81 82 83 84 84 85 94 94 92 94 94 93 87 69 66 68 65 68 73 72 67 65 61
29 33 36 44 61 67 67 70 76 78 80 82 83 83 80 86 84 82 78 79 86 88 86 83 74 68 66 70 77 74 72 72
29 31 35 39 54 60 64 66 69 73 74 74 71 69 65 71 72 73 77 70 68 76 72 70 70 69 73 71 74 70 71 80
28 30 35 37 48 54 59 58 58 65 70 65 66 64 61 60 71 72 67 65 60 68 69 64 63 67 68 70 61 64 69 74
26 28 35 36 42 48 56 51 51 56 63 65 60 57 59 57 61 61 64 62 55 59 64 63 61 61 61 62 61 64 70 73
24 27 31 34 40 44 54 50 47 52 54 61 65 58 54 56 56 58 59 57 54 54 56 56 56 58 58 61 64 63 63 63
22 26 30 34 38 41 48 51 46 47 51 55 59 59 56 56 58 56 58 57 57 54 54 50 52 53 57 59 61 57 60 62
24 26 29 33 37 40 42 49 46 44 45 51 54 59 57 58 57 60 60 58 57 54 53 56 55 56 55 57 58 58 60 61
22 25 27 31 35 39 40 48 49 47 46 49 52 54 55 55 56 56 60 57 55 53 55 55 57 52 50 51 50 56 60 61
20 23 26 28 32 36 39 43 50 49 48 50 52 53 55 54 57 58 58 59 55 53 55 54 54 52 49 54 56 66 73 81
14 18 22 26 29 33 36 39 45 48 48 50 49 52 52 56 57 60 60 58 56 57 56 56 62 79 98 100 99 97 97 98
14 15 18 23 27 31 34 37 41 45 46 46 48 49 51 53 53 56 60 65 68 87 92 92 93 92 97 98 96 94 95 95
16 16 18 19 24 30 35 36 41 47 46 44 45 48 50 51 58 82 93 92 94 94 94 93 94 93 95 94 93 92 94 92

GFSFLT1_sfc_rhum_102.txt.gz
RH
34 37 45 57 70 75 83 83 84 83 93 93 94 95 94 93 90 90 92 92 90 83 78 78 82 78 70 65 66 65 63 61
37 41 50 61 75 77 79 86 87 90 94 97 97 96 96 97 94 86 89 91 86 83 71 75 74 71 82 71 71 68 68 65
40 45 54 71 75 74 78 83 88 85 88 92 96 96 94 93 98 90 88 89 84 75 72 76 67 73 73 72 71 74 71 68
41 48 57 72 76 74 77 76 86 86 86 90 96 98 97 97 96 97 88 85 83 82 79 80 74 68 77 74 75 70 75 71
38 46 55 69 73 72 69 77 86 85 84 86 94 98 98 98 95 94 94 87 87 86 87 82 81 77 76 77 73 74 73 75
37 42 49 55 70 76 69 77 84 81 86 84 93 98 98 98 98 98 95 93 88 87 89 81 77 76 82 81 82 77 78 72
30 38 45 52 71 73 75 76 80 84 87 85 88 93 96 97 98 98 97 95 92 91 82 88 87 86 86 83 80 79 83 80
31 38 43 51 73 74 78 77 82 84 86 86 86 89 90 93 93 95 96 94 93 91 86 93 91 84 79 85 87 86 86 86
31 37 43 52 69 72 74 77 78 84 86 86 85 82 86 87 87 88 88 88 85 83 84 82 80 73 80 83 82 88 90 92
30 35 44 52 66 72 72 74 68 80 82 82 82 78 77 82 80 80 82 84 85 86 81 81 87 82 83 85 82 85 85 86
30 32 42 47 58 64 69 67 67 69 75 78 76 75 73 73 80 82 78 77 73 84 82 79 76 73 74 80 77 77 82 86
29 31 39 41 52 58 66 63 61 68 70 72 73 72 70 68 72 77 75 74 72 76 78 76 73 72 74 75 74 73 73 77
26 30 38 40 49 54 60 61 58 63 68 69 66 70 70 69 71 67 68 74 71 68 72 72 69 69 70 71 76 70 77 79
24 29 35 39 46 50 56 58 54 56 60 68 70 70 68 71 71 73 72 71 70 66 66 69 68 68 68 72 72 73 73 74
26 28 32 37 42 46 50 56 53 53 57 63 69 71 70 69 68 69 72 71 72 70 71 70 70 67 64 65 63 69 72 73
21 27 31 36 40 45 45 53 54 52 53 60 66 69 69 68 70 71 70 69 67 66 68 67 67 67 71 91 83 82 95 96
15 20 26 31 37 43 45 50 56 55 55 58 59 65 65 69 71 72 73 72 70 72 74 85 86 86 99 100 95 94 93 94
17 19 22 30 36 39 45 48 56 57 57 55 56 59 62 68 67 69 74 82 87 91 91 92 95 94 96 95 94 93 94 95
20 25 26 25 32 36 43 42 52 58 57 54 54 58 60 62 74 90 94 93 94 94 94 93 94 93 93 93 92 90 93 94

GFSFLT1_sfc_rhum_105.txt.gz
RH
44 52 66 80 86 92 93 93 93 96 97 95 98 98 97 94 94 94 96 90 85 89 86 81 85 71 82 90 70 68 65 67
47 58 73 90 92 94 93 90 93 98 99 99 99 99 98 96 92 94 93 90 86 89 80 83 84 74 85 79 66 64 69 67
52 70 78 91 94 92 85 89 92 97 97 98 97 98 98 96 93 94 91 89 88 85 75 79 78 85 86 79 67 78 70 79
60 70 84 94 94 89 80 86 93 96 93 96 98 98 99 96 99 96 92 87 88 81 78 75 78 85 79 81 66 74 78 82
58 71 90 93 94 86 75 82 90 91 90 92 96 94 97 96 91 95 93 90 87 82 78 75 76 82 81 81 73 75 74 73
59 66 83 85 88 87 76 82 90 87 89 93 96 99 99 96 93 95 94 92 88 82 84 80 83 80 77 74 85 85 78 80
56 62 76 84 88 87 77 86 88 86 90 93 94 98 98 99 98 97 98 93 92 84 87 88 89 90 88 87 87 87 91 85
58 65 75 86 91 87 81 85 88 91 91 94 96 97 91 95 95 94 97 98 96 95 90 92 96 96 94 91 90 89 89 93
55 59 69 85 86 88 81 82 83 90 89 93 95 96 95 89 93 92 92 93 94 94 92 91 98 96 95 95 93 91 91 91
55 56 66 84 85 86 85 84 80 86 86 91 95 95 94 91 87 87 87 88 90 93 91 89 95 94 92 89 86 87 89 92
50 53 63 79 80 81 83 82 76 82 88 88 88 88 86 86 87 86 86 85 82 89 86 82 85 88 84 83 81 82 84 85
47 51 59 73 76 80 83 84 77 81 83 89 89 84 84 88 84 86 86 86 81 85 80 79 81 85 81 80 78 80 84 84
40 48 58 70 74 77 78 80 78 80 76 81 86 84 81 83 89 84 83 83 83 85 81 79 79 74 78 82 85 77 83 84
36 47 56 66 69 76 73 74 75 76 74 76 78 80 82 78 81 84 85 82 81 82 83 82 80 79 78 82 80 80 82 85
42 51 48 59 62 71 70 71 69 75 76 77 73 81 82 77 79 78 76 82 82 78 81 82 81 78 75 75 74 79 83 94
22 47 57 54 58 65 65 67 69 71 76 80 80 82 87 84 85 86 80 81 80 78 82 77 77 77 79 85 87 92 94 94
18 23 47 52 53 60 63 65 64 66 70 77 78 80 78 84 82 85 88 86 80 83 89 88 90 87 98 99 94 94 92 93
33 20 20 60 56 51 60 63 62 65 69 70 74 77 77 81 80 81 82 90 88 91 92 92 96 95 95 94 93 92 94 94
69 56 54 37 47 53 56 60 61 67 69 66 72 74 75 79 88 92 94 94 95 95 96 94 95 94 94 93 92 91 93 94

GFSFLT1_sfc_rhum_108.txt.gz
RH
43 64 74 82 87 91 94 95 96 96 98 99 99 97 99 98 96 96 95 93 87 86 80 75 77 71 70 80 73 81 71 77
56 73 81 90 94 94 95 96 98 98 99 99 99 98 98 98 96 92 95 94 90 89 77 80 76 69 73 79 77 72 81 74
70 84 86 88 94 94 96 96 98 97 98 98 96 99 94 94 94 93 91 94 89 86 79 74 76 74 79 81 72 75 74 70
74 86 96 96 96 95 94 95 93 93 96 98 99 99 99 97 97 97 96 91 87 85 81 74 75 78 86 77 70 63 63 80
66 78 96 96 95 94 94 94 88 92 96 97 96 98 96 96 96 92 93 92 89 84 82 80 79 80 79 77 66 71 64 64
65 75 84 93 95 94 91 94 91 91 92 90 94 96 95 95 95 98 92 95 88 85 83 85 86 84 85 76 82 85 82 77
59 68 86 94 93 94 92 92 90 91 91 93 95 96 96 96 95 95 97 95 95 90 87 88 89 88 87 92 94 90 94 87
65 89 89 94 96 95 94 90 95 90 91 94 94 95 96 95 94 96 91 98 97 97 94 94 94 93 94 95 95 96 95 94
66 80 83 89 91 93 90 93 94 90 91 94 93 97 93 94 94 95 94 95 95 96 94 91 92 93 94 94 96 97 97 97
67 76 83 86 88 91 94 91 92 88 90 93 94 95 97 93 93 92 95 94 95 94 95 97 96 95 95 95 96 95 95 95
64 70 84 84 85 88 93 86 90 87 89 91 92 97 97 96 93 95 94 94 95 96 95 94 96 96 96 95 96 95 94 90
60 62 78 83 85 89 93 89 85 81 81 90 93 97 96 95 88 89 92 91 94 95 94 96 94 96 96 96 93 88 88 83
62 59 75 85 87 89 91 86 85 84 77 86 88 93 94 90 90 91 91 90 88 87 87 92 89 87 91 89 87 82 86 84
52 68 70 82 84 86 86 86 84 83 89 88 89 90 94 96 93 93 93 89 89 87 85 84 84 84 88 86 84 84 88 85
49 75 77 82 83 83 85 85 82 83 84 86 93 94 90 92 94 92 91 90 91 89 86 83 81 83 80 81 84 90 91 94
45 62 75 82 86 86 81 82 83 82 81 76 86 87 89 86 91 92 91 89 87 90 90 88 84 82 82 84 84 89 94 94
71 52 63 72 77 84 82 81 81 81 83 84 81 85 86 89 89 89 88 92 93 92 94 90 92 90 100 99 94 94 93 95
76 77 73 81 68 72 81 84 81 81 84 82 83 86 87 89 89 91 93 92 90 92 93 94 97 96 96 95 94 94 95 95
83 84 81 77 80 72 76 82 86 83 83 82 83 84 84 88 91 94 95 94 96 96 96 95 96 95 95 94 92 91 94 95

GFSFLT1_sfc_rhum_111.txt.gz
RH
27 47 69 87 94 94 94 96 97 98 99 97 99 99 99 99 99 95 94 96 91 90 86 87 79 71 72 80 79 87 84 77
30 78 89 95 96 94 94 97 98 98 97 97 98 98 99 99 99 89 88 91 94 91 80 83 75 65 70 77 80 77 90 80
64 92 93 94 94 92 95 95 98 98 98 98 98 96 98 98 97 96 90 92 92 88 79 80 71 66 76 80 74 91 86 76
65 93 95 93 94 94 95 96 97 97 97 98 99 99 99 99 99 98 97 93 92 86 79 76 70 68 69 79 77 72 75 82
59 88 97 96 93 93 95 96 98 97 97 98 97 97 98 96 95 95 96 95 95 92 82 75 70 72 66 73 74 73 76 73
67 81 88 92 95 97 97 97 96 92 96 96 97 98 97 98 95 94 97 96 92 92 86 78 78 73 79 74 81 86 73 68
52 66 86 94 98 97 98 97 90 90 92 96 95 96 97 98 98 99 97 97 93 91 90 88 86 83 85 83 86 84 86 82
40 69 92 96 98 97 97 96 91 88 92 93 95 95 92 95 95 96 95 97 98 93 92 92 91 90 91 88 88 89 87 86
52 65 87 94 94 96 95 96 92 88 90 93 91 93 92 92 89 92 92 90 96 96 92 92 91 92 92 90 91 94 96 95
50 74 85 89 94 95 94 95 89 90 88 96 94 93 94 93 93 93 95 93 95 96 94 95 96 95 94 94 96 98 98 98
49 79 86 88 88 92 94 93 89 94 85 93 96 94 94 95 94 96 98 97 95 96 96 94 95 96 95 95 97 98 98 98
57 58 83 87 91 94 94 95 95 95 88 91 96 95 95 96 97 94 96 97 96 97 96 96 96 96 96 97 96 96 96 98
54 51 88 94 95 90 93 94 95 93 92 88 95 97 95 95 96 96 95 96 95 96 97 96 95 95 95 95 96 96 97 98
55 50 90 92 92 92 88 93 91 89 89 87 91 95 95 95 96 94 95 93 92 92 93 96 96 95 95 94 94 90 90 89
67 71 89 90 92 92 87 87 90 90 89 81 89 92 94 95 96 96 96 95 93 90 90 92 93 93 94 92 89 92 94 94
74 77 89 92 91 90 89 87 92 92 93 90 83 89 91 96 98 97 95 95 95 93 91 89 90 90 91 93 94 95 94 95
75 74 76 77 82 90 88 88 89 92 93 91 84 92 94 96 98 97 95 95 97 97 96 93 94 93 100 100 96 95 94 95
81 81 79 82 81 78 88 88 88 88 90 90 90 94 94 94 96 96 96 95 92 95 95 96 98 98 97 96 95 95 95 95
82 82 80 81 81 84 81 84 88 90 89 89 89 93 94 94 96 98 98 97 97 98 98 97 97 97 96 95 94 93 96 96

GFSFLT1_sfc_rhum_117.txt.gz
RH
17 19 23 25 35 40 63 77 80 82 88 89 92 92 93 90 93 90 92 95 93 92 95 96 94 92 80 69 64 59 60 61
20 26 29 35 59 65 74 81 84 87 91 97 97 96 93 95 95 86 86 91 94 97 96 96 93 93 78 71 66 69 66 62
27 32 34 49 63 74 78 78 87 81 81 86 87 92 94 88 90 88 93 92 94 97 96 94 91 90 84 76 68 64 64 67
41 43 45 54 67 80 80 79 85 82 78 81 82 92 96 97 97 97 96 96 95 98 94 92 91 83 80 74 69 66 68 69
43 45 45 54 61 75 77 82 84 83 80 79 84 89 94 92 95 95 95 94 95 94 94 94 88 78 77 71 67 65 70 72
48 48 48 51 68 78 80 83 84 86 88 82 78 91 90 86 91 94 92 94 93 92 94 94 91 79 73 70 71 68 61 63
47 47 45 48 80 86 85 86 84 88 87 84 82 89 89 93 92 98 91 96 96 93 95 95 92 81 77 71 73 72 71 65
48 48 48 49 68 85 83 88 89 91 87 87 85 85 83 82 90 91 96 92 95 96 93 95 91 86 79 75 75 74 73 70
47 50 51 50 55 76 86 86 88 87 88 88 86 81 80 81 85 90 89 96 95 91 92 90 91 86 77 77 76 76 75 79
54 55 55 59 59 60 87 87 85 89 89 89 84 81 84 86 89 91 92 92 90 97 92 91 89 89 86 77 78 78 78 83
57 58 60 63 68 61 81 86 87 88 84 82 77 78 77 82 82 83 84 89 92 96 94 96 92 88 85 83 81 80 82 86
55 56 58 56 68 74 86 92 88 91 83 78 78 83 84 88 88 86 79 82 82 84 90 97 97 94 88 88 85 84 81 88
56 56 53 59 68 85 90 93 89 89 79 77 78 82 86 89 90 85 86 94 92 92 93 94 94 97 92 92 92 87 84 91
54 55 60 66 70 78 92 92 88 85 84 79 82 82 90 91 86 91 90 93 96 97 97 98 99 95 95 93 91 91 91 91
57 59 70 75 74 77 88 94 91 90 88 74 81 83 91 91 91 92 92 92 98 97 96 97 99 98 96 95 94 94 95 95
58 70 77 84 78 78 84 92 95 92 90 82 80 85 91 92 94 92 95 93 93 94 96 98 98 99 98 98 98 98 98 98
74 75 78 86 82 82 83 90 96 92 90 83 80 91 92 93 95 96 96 96 94 96 98 99 99 99 100 100 98 97 96 96
74 78 83 82 85 85 90 90 91 91 90 81 82 91 94 95 94 95 97 98 96 98 98 98 98 99 99 98 98 96 96 96
75 77 77 76 80 88 91 88 89 95 90 83 86 88 93 94 97 98 98 98 98 98 98 98 97 98 97 97 95 94 96 96

GFSFLT1_sfc_rhum_120.txt.gz
RH
10 12 16 19 24 24 28 28 40 53 61 69 73 75 82 80 88 72 74 89 91 90 90 91 94 95 93 84 74 53 52 48
12 20 26 31 33 32 38 40 48 56 69 80 88 87 86 84 81 78 82 80 92 93 95 96 94 95 93 83 71 60 51 56
20 24 29 34 39 43 44 46 53 55 67 74 74 80 78 77 84 80 82 79 87 91 93 96 94 94 94 81 72 57 50 53
27 31 33 36 39 46 44 44 54 61 57 71 69 75 80 91 92 91 85 74 75 86 91 97 95 94 94 90 74 68 59 58
30 30 32 36 46 52 49 49 56 74 67 74 72 74 76 73 76 87 81 76 81 88 92 96 96 93 92 90 76 64 58 60
29 28 31 31 46 58 57 55 73 74 77 68 66 64 57 65 87 85 84 93 88 81 93 96 95 93 90 86 81 67 59 57
28 27 30 32 41 56 70 69 74 80 82 71 66 64 63 72 86 79 83 94 94 93 94 95 94 95 92 89 82 71 62 58
31 32 34 39 45 46 59 77 78 86 88 74 69 68 66 72 75 78 78 94 96 97 94 96 96 94 92 86 79 67 65 60
32 35 40 43 50 52 48 57 78 82 90 87 76 68 67 74 72 70 81 90 92 90 93 90 95 94 92 86 78 66 66 66
32 32 40 43 48 58 56 52 65 80 89 86 82 78 66 65 69 72 76 83 89 90 90 92 92 94 93 86 78 73 70 71
32 32 36 36 42 50 67 62 66 74 83 88 78 73 63 65 70 73 78 86 90 96 95 93 91 89 90 89 81 74 73 73
32 35 33 33 40 46 61 77 78 78 83 88 80 74 67 69 78 77 78 84 89 95 96 96 95 91 87 87 91 83 72 70
32 34 36 37 44 48 56 80 88 85 84 88 84 75 64 68 69 68 70 70 70 74 83 92 98 94 92 88 86 79 72 69
29 33 38 45 50 52 57 73 84 87 85 88 87 79 66 70 66 70 81 83 82 88 89 92 92 95 97 94 85 83 82 77
29 37 42 45 49 58 61 82 86 91 90 90 89 76 66 65 66 78 84 84 84 93 92 92 96 97 98 94 93 90 89 88
35 43 49 52 58 62 69 83 86 89 94 93 85 71 72 68 73 81 81 83 88 88 88 92 98 99 99 96 95 96 97 98
48 51 53 58 61 70 80 85 89 89 95 92 76 71 73 71 75 83 88 90 91 93 93 96 97 96 100 100 98 97 97 97
56 56 57 60 62 70 85 89 88 89 94 92 77 68 70 73 75 81 93 97 96 98 98 97 97 97 98 98 96 95 96 96
56 56 58 59 61 66 82 86 89 92 92 94 80 71 72 70 80 91 97 96 97 97 98 97 97 96 96 95 94 94 96 95

GFSFLT1_sfc_rhum_123.txt.gz
RH
9 9 11 16 26 28 27 25 31 35 47 56 54 70 78 83 75 58 72 79 82 82 88 87 86 92 94 97 94 79 49 50
8 11 16 21 25 29 29 32 38 33 36 48 56 68 84 84 83 67 76 84 80 90 90 91 92 95 92 93 92 84 61 57
11 16 21 26 28 31 35 34 37 36 34 43 54 71 83 82 78 71 67 73 87 84 86 94 92 96 94 95 93 86 66 69
17 21 23 29 33 44 39 35 36 41 42 46 75 81 86 91 84 75 69 71 75 82 88 94 95 93 96 94 94 88 69 66
20 20 22 27 35 45 44 41 38 43 49 57 81 84 85 84 80 79 70 69 69 69 76 89 96 94 94 94 93 90 74 68
22 22 23 24 35 40 52 48 45 50 58 59 74 84 69 70 68 77 77 74 68 69 80 89 97 96 94 92 95 90 75 70
22 23 24 24 40 47 42 53 54 69 74 75 80 81 70 68 65 74 74 81 80 75 78 89 92 96 94 94 93 90 83 71
25 25 27 30 37 44 44 39 54 66 76 77 83 81 77 66 68 72 79 90 86 83 84 95 96 94 95 93 93 91 81 72
25 25 28 30 35 40 50 42 43 60 70 78 88 82 76 58 60 68 69 79 87 87 92 92 92 95 96 93 93 92 85 86
24 24 27 29 28 35 51 54 44 60 72 73 86 88 77 62 58 72 65 80 80 87 89 92 92 95 96 97 95 95 94 90
20 23 26 26 29 34 46 53 54 56 64 74 87 88 80 69 64 70 72 68 83 89 90 91 93 93 95 96 96 94 94 90
17 23 26 27 32 37 45 50 60 67 67 74 83 90 87 78 70 72 71 75 73 85 92 94 95 94 93 94 95 92 90 84
12 22 25 29 35 39 42 53 55 67 74 76 79 88 90 80 74 64 68 69 74 88 94 93 93 93 94 92 92 91 89 84
10 16 22 28 35 43 46 49 56 61 72 83 83 88 89 83 77 70 77 73 68 75 79 86 96 95 94 93 90 90 89 84
12 14 23 28 38 47 51 58 59 66 80 90 87 89 88 82 72 74 80 72 67 67 71 72 81 92 92 94 94 94 91 89
18 22 32 40 45 47 50 60 62 69 82 90 90 89 92 79 78 80 79 77 72 77 84 90 90 92 92 95 93 94 94 89
23 34 40 46 48 50 52 61 71 73 85 88 90 92 88 80 83 82 82 80 78 83 86 95 95 92 100 100 100 99 100 98
39 46 47 49 51 52 59 64 68 79 86 83 87 90 85 76 80 80 82 87 92 96 97 95 96 96 98 98 97 97 97 98
46 48 48 48 50 59 68 65 71 79 86 84 86 90 82 71 81 86 96 95 97 97 98 96 96 94 96 95 94 94 96 99

GFSFLT1_sfc_rhum_129.txt.gz
RH
21 20 20 32 39 38 40 46 70 91 94 94 95 96 89 94 96 90 92 91 92 91 92 93 94 97 97 95 93 95 94 94
18 19 24 33 39 39 44 46 53 65 91 98 98 96 96 93 88 88 92 93 93 94 94 94 96 95 94 94 95 96 97 95
12 22 35 41 48 60 60 61 62 62 60 81 94 94 96 89 91 92 94 91 94 96 94 94 94 96 95 95 94 96 97 96
23 34 47 44 64 63 62 65 71 71 66 59 86 96 98 98 95 91 85 95 92 92 95 94 94 94 96 95 93 91 94 98
26 33 45 62 63 60 60 61 66 68 74 70 85 94 99 98 95 92 91 93 95 94 94 94 94 96 96 95 93 92 88 94
31 38 49 55 55 56 60 65 65 76 82 88 94 95 96 98 98 95 92 96 95 96 96 97 96 97 95 94 94 92 89 85
33 32 52 60 63 60 58 63 68 74 80 85 89 94 95 96 97 94 92 91 95 96 95 97 96 96 96 95 94 92 92 88
38 39 41 52 60 62 56 64 65 78 84 88 89 90 93 92 92 93 92 92 94 94 95 96 96 94 95 92 93 93 92 92
38 38 39 45 57 63 61 62 67 67 84 88 89 91 96 94 92 93 88 89 88 90 91 91 94 93 92 95 95 94 94 94
41 36 39 39 60 66 63 66 67 72 79 79 83 84 91 92 94 95 91 89 91 93 94 96 97 96 95 96 98 98 97 96
32 36 40 46 58 65 71 67 68 74 76 79 76 84 90 94 96 97 93 92 89 92 95 95 97 97 97 97 97 96 96 96
23 29 33 46 52 60 71 73 74 78 79 82 85 84 87 94 96 97 95 92 91 93 93 95 95 96 95 98 96 95 98 97
15 16 30 35 54 65 71 74 73 78 82 84 84 86 86 92 95 94 95 94 92 94 94 95 94 95 96 97 97 96 98 97
17 20 54 60 63 63 68 72 75 78 80 82 83 84 84 89 93 94 96 97 94 94 94 95 94 95 97 97 95 96 97 94
20 54 60 61 61 64 66 75 78 78 82 84 85 84 84 85 88 91 95 96 95 94 94 94 93 94 94 94 95 96 94 96
41 56 62 59 63 66 69 73 74 74 76 80 83 83 82 82 86 92 94 96 95 95 95 95 94 94 94 96 95 96 96 95
56 56 57 61 63 68 72 75 75 75 77 77 74 79 80 83 87 89 95 96 96 96 97 97 97 97 100 100 98 96 96 96
61 61 62 65 69 68 77 76 74 75 75 75 73 76 79 81 79 89 95 97 96 98 99 99 99 99 100 100 100 98 98 98
62 62 64 66 67 71 74 73 76 76 75 76 77 78 80 82 84 90 93 99 99 99 99 99 99 98 99 99 99 99 99 100